Darstellungsparameter: Aktuell verwendete Einstellungen:
Skalierung der Graphiken ... ?
xyx+y,   Skalierungsfaktor:      Skalierung: Modus: x, Faktor: 1
Darstellungszeitraum ... ?
Vom - - bis: - -   Zeitraum: 21.11.2020 - 25.11.2020
Min/Max/Avg-Anzeige ... ?
Zeige MMA aktuell
Zeige MMA Monat
Zeige MMA alles
Zeige --A aktuell
Zeige --A Monat
Zeige --A alles
Keine MMA-Anzeige
MMA:
Minimum Maximum Average (ber die Originaldaten)
MMA-Basis: 14.04.2020 - 16.05.2020
Quicknavigation für Darstellung... ?
Tage:      1T, 2T, 3T, 5T -1T -2T -3T -5T +1T +2T +3T +5T
Wochen: 1W, 2W, 3W -1W -2W -3W +1W +2W +3W
Monate: 1M, 3M, 6M -1M -3M -6M +1M +3M +6M
Jahre:    1J, 3J, 5J, 10J -1J -3J -5J -10J +1J +3J +5J +10J
Nutze für die Darstellung ... ?
Originaldaten oder Mittelwerte auf ...
Stundenbasis Tagesbasis Wochenbasis
Monatsbasis Jahresbasis      Datenbasis: Original-Daten
Darstellen als:
Statistik (Auto) Statistik J:M      Darstellung:
Zur Graphik,    zurück zur Übersicht aller Sensoren.
 
Tabellarische Datenbersicht: ?
 
Sensor: Nr:Datum:Temp:Abs-Feuchte:Windchill:Wind:
Aussen-T/F 1 21-11-2020 00:00:00 0.3 C 4.75 g/m*3 0.3 C 0 km/h
2 21-11-2020 00:05:00 0.3 C 4.75 g/m*3 0.3 C 0 km/h
3 21-11-2020 00:10:00 0.3 C 4.75 g/m*3 0.3 C 1.6 km/h
4 21-11-2020 00:15:00 0.3 C 4.75 g/m*3 0.3 C 0 km/h
5 21-11-2020 00:20:00 0.3 C 4.75 g/m*3 0.3 C 0 km/h
6 21-11-2020 00:25:00 0.3 C 4.75 g/m*3 0.3 C 0 km/h
7 21-11-2020 00:30:00 0.2 C 4.72 g/m*3 0.2 C 0 km/h
8 21-11-2020 00:35:00 0.2 C 4.67 g/m*3 0.2 C 0 km/h
9 21-11-2020 00:40:00 0.2 C 4.67 g/m*3 0.2 C 0 km/h
10 21-11-2020 00:45:00 0.2 C 4.67 g/m*3 0.2 C 1.6 km/h
11 21-11-2020 00:50:00 0.2 C 4.72 g/m*3 0.2 C 0 km/h
12 21-11-2020 00:55:00 0.2 C 4.72 g/m*3 0.2 C 4.8 km/h
13 21-11-2020 01:00:00 0.3 C 4.75 g/m*3 0.3 C 0 km/h
14 21-11-2020 01:05:00 0.3 C 4.75 g/m*3 0.3 C 0 km/h
15 21-11-2020 01:10:00 0.3 C 4.75 g/m*3 0.3 C 0 km/h
16 21-11-2020 01:15:00 0.2 C 4.72 g/m*3 0.2 C 1.6 km/h
17 21-11-2020 01:20:00 0.2 C 4.72 g/m*3 0.2 C 0 km/h
18 21-11-2020 01:25:00 0.2 C 4.72 g/m*3 0.2 C 3.2 km/h
19 21-11-2020 01:30:00 0.2 C 4.72 g/m*3 0.2 C 3.2 km/h
20 21-11-2020 01:35:00 0.2 C 4.72 g/m*3 0.2 C 0 km/h
21 21-11-2020 01:40:00 0.3 C 4.75 g/m*3 0.3 C 0 km/h
22 21-11-2020 01:45:00 0.3 C 4.75 g/m*3 0.3 C 0 km/h
23 21-11-2020 01:50:00 0.3 C 4.75 g/m*3 0.3 C 0 km/h
24 21-11-2020 01:55:00 0.3 C 4.75 g/m*3 0.3 C 0 km/h
25 21-11-2020 02:00:00 0.2 C 4.72 g/m*3 0.2 C 1.6 km/h
Sensor: Nr:Datum:Temp:Abs-Feuchte:Windchill:Wind:
Aussen-T/F 26 21-11-2020 02:05:00 0.2 C 4.72 g/m*3 0.2 C 0 km/h
27 21-11-2020 02:10:00 0.2 C 4.72 g/m*3 0.2 C 1.6 km/h
28 21-11-2020 02:15:00 0.2 C 4.72 g/m*3 0.2 C 0 km/h
29 21-11-2020 02:20:00 0.2 C 4.72 g/m*3 0.2 C 0 km/h
30 21-11-2020 02:25:00 0.2 C 4.72 g/m*3 0.2 C 0 km/h
31 21-11-2020 02:30:00 0.2 C 4.72 g/m*3 0.2 C 0 km/h
32 21-11-2020 02:35:00 0.2 C 4.72 g/m*3 0.2 C 0 km/h
33 21-11-2020 02:40:00 0.2 C 4.72 g/m*3 0.2 C 0 km/h
34 21-11-2020 02:45:00 0.2 C 4.72 g/m*3 0.2 C 0 km/h
35 21-11-2020 02:50:00 0.2 C 4.72 g/m*3 0.2 C 0 km/h
36 21-11-2020 02:55:00 0.2 C 4.72 g/m*3 0.2 C 0 km/h
37 21-11-2020 03:00:00 0.3 C 4.75 g/m*3 0.3 C 0 km/h
38 21-11-2020 03:05:00 0.3 C 4.75 g/m*3 0.3 C 0 km/h
39 21-11-2020 03:10:00 0.3 C 4.75 g/m*3 0.3 C 0 km/h
40 21-11-2020 03:15:00 0.3 C 4.75 g/m*3 0.3 C 4.8 km/h
41 21-11-2020 03:20:00 0.3 C 4.75 g/m*3 0.3 C 3.2 km/h
42 21-11-2020 03:25:00 0.2 C 4.72 g/m*3 0.2 C 0 km/h
43 21-11-2020 03:30:00 0.2 C 4.72 g/m*3 0.2 C 0 km/h
44 21-11-2020 03:35:00 0.2 C 4.72 g/m*3 0.2 C 3.2 km/h
45 21-11-2020 03:40:00 0.2 C 4.72 g/m*3 0.2 C 0 km/h
46 21-11-2020 03:45:00 0.2 C 4.72 g/m*3 0.2 C 0 km/h
47 21-11-2020 03:50:00 0.2 C 4.72 g/m*3 0.2 C 0 km/h
48 21-11-2020 03:55:00 0.2 C 4.72 g/m*3 0.2 C 0 km/h
49 21-11-2020 04:00:00 0.1 C 4.68 g/m*3 0.1 C 3.2 km/h
50 21-11-2020 04:05:00 0.1 C 4.68 g/m*3 0.1 C 1.6 km/h
Sensor: Nr:Datum:Temp:Abs-Feuchte:Windchill:Wind:
Aussen-T/F 51 21-11-2020 04:10:00 0.1 C 4.68 g/m*3 0.1 C 1.6 km/h
52 21-11-2020 04:15:00 0.1 C 4.68 g/m*3 0.1 C 3.2 km/h
53 21-11-2020 04:20:00 0.1 C 4.68 g/m*3 0.1 C 1.6 km/h
54 21-11-2020 04:25:00 0.1 C 4.68 g/m*3 0.1 C 0 km/h
55 21-11-2020 04:30:00 0.1 C 4.68 g/m*3 0.1 C 1.6 km/h
56 21-11-2020 04:35:00 0.2 C 4.72 g/m*3 0.2 C 1.6 km/h
57 21-11-2020 04:40:00 0.2 C 4.72 g/m*3 0.2 C 0 km/h
58 21-11-2020 04:45:00 0.2 C 4.72 g/m*3 0.2 C 3.2 km/h
59 21-11-2020 04:50:00 0.2 C 4.72 g/m*3 0.2 C 0 km/h
60 21-11-2020 04:55:00 0.2 C 4.72 g/m*3 0.2 C 1.6 km/h
61 21-11-2020 05:00:00 0.2 C 4.72 g/m*3 0.2 C 0 km/h
62 21-11-2020 05:05:00 0.2 C 4.72 g/m*3 0.2 C 4.8 km/h
63 21-11-2020 05:10:00 0.2 C 4.72 g/m*3 0.2 C 0 km/h
64 21-11-2020 05:15:00 0.2 C 4.72 g/m*3 0.2 C 1.6 km/h
65 21-11-2020 05:20:00 0.2 C 4.77 g/m*3 0.2 C 1.6 km/h
66 21-11-2020 05:25:00 0.2 C 4.72 g/m*3 0.2 C 3.2 km/h
67 21-11-2020 05:30:00 0.2 C 4.72 g/m*3 0.2 C 1.6 km/h
68 21-11-2020 05:35:00 0.1 C 4.68 g/m*3 0.1 C 0 km/h
69 21-11-2020 05:40:00 0.1 C 4.68 g/m*3 0.1 C 0 km/h
70 21-11-2020 05:45:00 0.1 C 4.68 g/m*3 0.1 C 1.6 km/h
71 21-11-2020 05:50:00 0.2 C 4.72 g/m*3 0.2 C 0 km/h
72 21-11-2020 05:55:00 0.2 C 4.72 g/m*3 0.2 C 0 km/h
73 21-11-2020 06:00:00 0.2 C 4.72 g/m*3 0.2 C 0 km/h
74 21-11-2020 06:05:00 0.2 C 4.72 g/m*3 0.2 C 1.6 km/h
75 21-11-2020 06:10:00 0.2 C 4.72 g/m*3 0.2 C 0 km/h
Sensor: Nr:Datum:Temp:Abs-Feuchte:Windchill:Wind:
Aussen-T/F 76 21-11-2020 06:15:00 0.2 C 4.72 g/m*3 0.2 C 0 km/h
77 21-11-2020 06:20:00 0.2 C 4.72 g/m*3 0.2 C 1.6 km/h
78 21-11-2020 06:25:00 0.2 C 4.72 g/m*3 0.2 C 0 km/h
79 21-11-2020 06:30:00 0.2 C 4.72 g/m*3 0.2 C 1.6 km/h
80 21-11-2020 06:35:00 0.3 C 4.75 g/m*3 0.3 C 0 km/h
81 21-11-2020 06:40:00 0.3 C 4.8 g/m*3 0.3 C 1.6 km/h
82 21-11-2020 06:45:00 0.3 C 4.8 g/m*3 0.3 C 0 km/h
83 21-11-2020 06:50:00 0.3 C 4.8 g/m*3 0.3 C 0 km/h
84 21-11-2020 06:55:00 0.3 C 4.8 g/m*3 0.3 C 0 km/h
85 21-11-2020 07:00:00 0.3 C 4.8 g/m*3 0.3 C 0 km/h
86 21-11-2020 07:05:00 0.3 C 4.8 g/m*3 0.3 C 0 km/h
87 21-11-2020 07:10:00 0.3 C 4.8 g/m*3 0.3 C 0 km/h
88 21-11-2020 07:15:00 0.3 C 4.8 g/m*3 0.3 C 0 km/h
89 21-11-2020 07:20:00 0.3 C 4.8 g/m*3 0.3 C 0 km/h
90 21-11-2020 07:25:00 0.3 C 4.8 g/m*3 0.3 C 0 km/h
91 21-11-2020 07:30:00 0.3 C 4.8 g/m*3 0.3 C 0 km/h
92 21-11-2020 07:35:00 0.3 C 4.8 g/m*3 0.3 C 0 km/h
93 21-11-2020 07:40:00 0.3 C 4.8 g/m*3 0.3 C 0 km/h
94 21-11-2020 07:45:00 0.3 C 4.8 g/m*3 0.3 C 0 km/h
95 21-11-2020 07:50:00 0.4 C 4.83 g/m*3 0.4 C 0 km/h
96 21-11-2020 07:55:00 0.4 C 4.83 g/m*3 0.4 C 0 km/h
97 21-11-2020 08:00:00 0.4 C 4.83 g/m*3 0.4 C 0 km/h
98 21-11-2020 08:05:00 0.4 C 4.83 g/m*3 0.4 C 0 km/h
99 21-11-2020 08:10:00 0.4 C 4.83 g/m*3 0.4 C 0 km/h
100 21-11-2020 08:15:00 0.5 C 4.86 g/m*3 0.5 C 0 km/h
Sensor: Nr:Datum:Temp:Abs-Feuchte:Windchill:Wind:
Aussen-T/F 101 21-11-2020 08:20:00 0.5 C 4.86 g/m*3 0.5 C 0 km/h
102 21-11-2020 08:25:00 0.5 C 4.86 g/m*3 0.5 C 0 km/h
103 21-11-2020 08:30:00 0.6 C 4.9 g/m*3 0.6 C 0 km/h
104 21-11-2020 08:35:00 0.6 C 4.9 g/m*3 0.6 C 0 km/h
105 21-11-2020 08:40:00 0.6 C 4.9 g/m*3 0.6 C 1.6 km/h
106 21-11-2020 08:45:00 0.6 C 4.9 g/m*3 0.6 C 0 km/h
107 21-11-2020 08:50:00 0.6 C 4.9 g/m*3 0.6 C 0 km/h
108 21-11-2020 08:55:00 0.6 C 4.9 g/m*3 0.6 C 0 km/h
109 21-11-2020 09:00:00 0.7 C 4.93 g/m*3 0.7 C 0 km/h
110 21-11-2020 09:05:00 0.7 C 4.93 g/m*3 0.7 C 0 km/h
111 21-11-2020 09:10:00 0.7 C 4.93 g/m*3 0.7 C 0 km/h
112 21-11-2020 09:15:00 0.8 C 4.97 g/m*3 0.8 C 0 km/h
113 21-11-2020 09:20:00 0.9 C 5 g/m*3 0.9 C 0 km/h
114 21-11-2020 09:25:00 1 C 5.03 g/m*3 1 C 0 km/h
115 21-11-2020 09:30:00 1.2 C 5.1 g/m*3 1.2 C 0 km/h
116 21-11-2020 09:35:00 1.3 C 5.14 g/m*3 1.3 C 0 km/h
117 21-11-2020 09:40:00 1.4 C 5.17 g/m*3 1.4 C 0 km/h
118 21-11-2020 09:45:00 1.6 C 5.25 g/m*3 1.6 C 0 km/h
119 21-11-2020 09:50:00 1.7 C 5.28 g/m*3 1.7 C 0 km/h
120 21-11-2020 09:55:00 1.7 C 5.28 g/m*3 1.7 C 0 km/h
121 21-11-2020 10:00:00 1.8 C 5.32 g/m*3 1.8 C 0 km/h
122 21-11-2020 10:05:00 1.8 C 5.32 g/m*3 1.8 C 3.2 km/h
123 21-11-2020 10:10:00 1.9 C 5.35 g/m*3 1.9 C 1.6 km/h
124 21-11-2020 10:15:00 2.1 C 5.43 g/m*3 2.1 C 0 km/h
125 21-11-2020 10:20:00 2.1 C 5.43 g/m*3 2.1 C 0 km/h
Sensor: Nr:Datum:Temp:Abs-Feuchte:Windchill:Wind:
Aussen-T/F 126 21-11-2020 10:25:00 2.2 C 5.46 g/m*3 2.2 C 0 km/h
127 21-11-2020 10:30:00 2.3 C 5.5 g/m*3 2.3 C 0 km/h
128 21-11-2020 10:35:00 2.3 C 5.5 g/m*3 2.3 C 0 km/h
129 21-11-2020 10:40:00 2.3 C 5.5 g/m*3 2.3 C 0 km/h
130 21-11-2020 10:45:00 2.4 C 5.54 g/m*3 2.4 C 0 km/h
131 21-11-2020 10:50:00 2.4 C 5.54 g/m*3 2.4 C 0 km/h
132 21-11-2020 10:55:00 2.5 C 5.58 g/m*3 2.5 C 0 km/h
133 21-11-2020 11:00:00 2.6 C 5.61 g/m*3 2.6 C 0 km/h
134 21-11-2020 11:05:00 2.7 C 5.65 g/m*3 2.7 C 0 km/h
135 21-11-2020 11:10:00 2.8 C 5.69 g/m*3 2.8 C 0 km/h
136 21-11-2020 11:15:00 3.1 C 5.81 g/m*3 3.1 C 0 km/h
137 21-11-2020 11:20:00 3.2 C 5.85 g/m*3 3.2 C 0 km/h
138 21-11-2020 11:25:00 3.3 C 5.88 g/m*3 3.3 C 0 km/h
139 21-11-2020 11:30:00 3.5 C 5.96 g/m*3 3.5 C 0 km/h
140 21-11-2020 11:35:00 3.6 C 6 g/m*3 3.6 C 0 km/h
141 21-11-2020 11:40:00 3.8 C 6.09 g/m*3 3.8 C 0 km/h
142 21-11-2020 11:45:00 4 C 6.17 g/m*3 4 C 0 km/h
143 21-11-2020 11:50:00 4.1 C 6.21 g/m*3 4.1 C 1.6 km/h
144 21-11-2020 11:55:00 4.3 C 6.29 g/m*3 4.3 C 3.2 km/h
145 21-11-2020 12:00:00 4.4 C 6.33 g/m*3 4.4 C 3.2 km/h
146 21-11-2020 12:05:00 4.6 C 6.42 g/m*3 4.6 C 4.8 km/h
147 21-11-2020 12:10:00 4.7 C 6.46 g/m*3 4.7 C 0 km/h
148 21-11-2020 12:15:00 4.8 C 6.44 g/m*3 4.8 C 4.8 km/h
149 21-11-2020 12:20:00 5 C 6.46 g/m*3 2.72 C 9.7 km/h
150 21-11-2020 12:25:00 5.2 C 6.4 g/m*3 2.96 C 9.7 km/h
Sensor: Nr:Datum:Temp:Abs-Feuchte:Windchill:Wind:
Aussen-T/F 151 21-11-2020 12:30:00 5.4 C 6.28 g/m*3 3.2 C 9.7 km/h
152 21-11-2020 12:35:00 5.7 C 6.33 g/m*3 4.4 C 6.4 km/h
153 21-11-2020 12:40:00 5.9 C 6.2 g/m*3 3.19 C 12.9 km/h
154 21-11-2020 12:45:00 6.2 C 6.18 g/m*3 3.56 C 12.9 km/h
155 21-11-2020 12:50:00 6.4 C 6.18 g/m*3 4.39 C 9.7 km/h
156 21-11-2020 12:55:00 6.6 C 6.19 g/m*3 4.04 C 12.9 km/h
157 21-11-2020 13:00:00 6.7 C 6.08 g/m*3 5.11 C 8.1 km/h
158 21-11-2020 13:05:00 6.8 C 6.19 g/m*3 5.22 C 8.1 km/h
159 21-11-2020 13:10:00 6.8 C 6.19 g/m*3 4.87 C 9.7 km/h
160 21-11-2020 13:15:00 6.9 C 6.08 g/m*3 5.34 C 8.1 km/h
161 21-11-2020 13:20:00 7.1 C 6.16 g/m*3 7.1 C 4.8 km/h
162 21-11-2020 13:25:00 7.2 C 6.12 g/m*3 6.13 C 6.4 km/h
163 21-11-2020 13:30:00 7.3 C 6.16 g/m*3 4.9 C 12.9 km/h
164 21-11-2020 13:35:00 7.3 C 6.08 g/m*3 5.47 C 9.7 km/h
165 21-11-2020 13:40:00 7.3 C 6.08 g/m*3 5.81 C 8.1 km/h
166 21-11-2020 13:45:00 7.4 C 6.12 g/m*3 5.58 C 9.7 km/h
167 21-11-2020 13:50:00 7.5 C 6.16 g/m*3 6.05 C 8.1 km/h
168 21-11-2020 13:55:00 7.5 C 6.16 g/m*3 6.48 C 6.4 km/h
169 21-11-2020 14:00:00 7.6 C 6.2 g/m*3 5.53 C 11.3 km/h
170 21-11-2020 14:05:00 7.6 C 6.12 g/m*3 5.53 C 11.3 km/h
171 21-11-2020 14:10:00 7.7 C 6.16 g/m*3 5.65 C 11.3 km/h
172 21-11-2020 14:15:00 7.8 C 6.2 g/m*3 6.4 C 8.1 km/h
173 21-11-2020 14:20:00 7.8 C 6.12 g/m*3 5.77 C 11.3 km/h
174 21-11-2020 14:25:00 7.9 C 6.16 g/m*3 6.18 C 9.7 km/h
175 21-11-2020 14:30:00 7.9 C 6 g/m*3 5.63 C 12.9 km/h
Sensor: Nr:Datum:Temp:Abs-Feuchte:Windchill:Wind:
Aussen-T/F 176 21-11-2020 14:35:00 7.9 C 6 g/m*3 5.63 C 12.9 km/h
177 21-11-2020 14:40:00 7.9 C 6.08 g/m*3 5.63 C 12.9 km/h
178 21-11-2020 14:45:00 8 C 6.04 g/m*3 6.64 C 8.1 km/h
179 21-11-2020 14:50:00 8 C 6.12 g/m*3 6.64 C 8.1 km/h
180 21-11-2020 14:55:00 8.1 C 6.07 g/m*3 6.75 C 8.1 km/h
181 21-11-2020 15:00:00 8.1 C 6.16 g/m*3 6.42 C 9.7 km/h
182 21-11-2020 15:05:00 8 C 6.04 g/m*3 5.52 C 14.5 km/h
183 21-11-2020 15:10:00 7.9 C 6 g/m*3 4.98 C 17.7 km/h
184 21-11-2020 15:15:00 7.9 C 6 g/m*3 4.98 C 17.7 km/h
185 21-11-2020 15:20:00 7.9 C 5.91 g/m*3 6.94 C 6.4 km/h
186 21-11-2020 15:25:00 8 C 6.04 g/m*3 6.3 C 9.7 km/h
187 21-11-2020 15:30:00 8 C 5.95 g/m*3 6.64 C 8.1 km/h
188 21-11-2020 15:35:00 8 C 6.04 g/m*3 8 C 3.2 km/h
189 21-11-2020 15:40:00 8 C 5.87 g/m*3 6.64 C 8.1 km/h
190 21-11-2020 15:45:00 8 C 6.04 g/m*3 7.06 C 6.4 km/h
191 21-11-2020 15:50:00 8 C 5.95 g/m*3 8 C 4.8 km/h
192 21-11-2020 15:55:00 8.1 C 5.99 g/m*3 7.17 C 6.4 km/h
193 21-11-2020 16:00:00 8.1 C 5.99 g/m*3 8.1 C 3.2 km/h
194 21-11-2020 16:05:00 8.1 C 6.07 g/m*3 8.1 C 0 km/h
195 21-11-2020 16:10:00 8 C 6.04 g/m*3 8 C 3.2 km/h
196 21-11-2020 16:15:00 8 C 6.04 g/m*3 6.3 C 9.7 km/h
197 21-11-2020 16:20:00 8 C 6.12 g/m*3 7.06 C 6.4 km/h
198 21-11-2020 16:25:00 7.9 C 6.08 g/m*3 7.9 C 4.8 km/h
199 21-11-2020 16:30:00 7.9 C 6.08 g/m*3 7.9 C 3.2 km/h
200 21-11-2020 16:35:00 7.8 C 6.04 g/m*3 7.8 C 3.2 km/h
Sensor: Nr:Datum:Temp:Abs-Feuchte:Windchill:Wind:
Aussen-T/F 201 21-11-2020 16:40:00 7.8 C 6.12 g/m*3 7.8 C 1.6 km/h
202 21-11-2020 16:45:00 7.8 C 6.2 g/m*3 7.8 C 0 km/h
203 21-11-2020 16:50:00 7.7 C 6.08 g/m*3 7.7 C 0 km/h
204 21-11-2020 16:55:00 7.6 C 6.12 g/m*3 7.6 C 0 km/h
205 21-11-2020 17:00:00 7.6 C 6.2 g/m*3 7.6 C 0 km/h
206 21-11-2020 17:05:00 7.5 C 6.24 g/m*3 7.5 C 0 km/h
207 21-11-2020 17:10:00 7.4 C 6.28 g/m*3 7.4 C 0 km/h
208 21-11-2020 17:15:00 7.4 C 6.36 g/m*3 7.4 C 0 km/h
209 21-11-2020 17:20:00 7.3 C 6.32 g/m*3 7.3 C 0 km/h
210 21-11-2020 17:25:00 7.2 C 6.36 g/m*3 7.2 C 0 km/h
211 21-11-2020 17:30:00 7.2 C 6.28 g/m*3 7.2 C 0 km/h
212 21-11-2020 17:35:00 7.1 C 6.24 g/m*3 7.1 C 0 km/h
213 21-11-2020 17:40:00 7.1 C 6.32 g/m*3 7.1 C 0 km/h
214 21-11-2020 17:45:00 7 C 6.28 g/m*3 7 C 0 km/h
215 21-11-2020 17:50:00 6.9 C 6.24 g/m*3 6.9 C 0 km/h
216 21-11-2020 17:55:00 6.9 C 6.31 g/m*3 6.9 C 0 km/h
217 21-11-2020 18:00:00 6.8 C 6.27 g/m*3 6.8 C 0 km/h
218 21-11-2020 18:05:00 6.6 C 6.19 g/m*3 6.6 C 0 km/h
219 21-11-2020 18:10:00 6.3 C 6.07 g/m*3 6.3 C 4.8 km/h
220 21-11-2020 18:15:00 6.1 C 6.06 g/m*3 6.1 C 3.2 km/h
221 21-11-2020 18:20:00 5.8 C 5.95 g/m*3 5.8 C 3.2 km/h
222 21-11-2020 18:25:00 5.6 C 5.94 g/m*3 5.6 C 4.8 km/h
223 21-11-2020 18:30:00 5.3 C 5.82 g/m*3 5.3 C 4.8 km/h
224 21-11-2020 18:35:00 5.2 C 5.85 g/m*3 5.2 C 4.8 km/h
225 21-11-2020 18:40:00 5.1 C 5.88 g/m*3 5.1 C 3.2 km/h
Sensor: Nr:Datum:Temp:Abs-Feuchte:Windchill:Wind:
Aussen-T/F 226 21-11-2020 18:45:00 5 C 5.84 g/m*3 5 C 3.2 km/h
227 21-11-2020 18:50:00 5 C 5.91 g/m*3 5 C 1.6 km/h
228 21-11-2020 18:55:00 5 C 5.91 g/m*3 5 C 0 km/h
229 21-11-2020 19:00:00 5 C 5.91 g/m*3 5 C 0 km/h
230 21-11-2020 19:05:00 4.9 C 5.87 g/m*3 4.9 C 0 km/h
231 21-11-2020 19:10:00 4.9 C 5.87 g/m*3 4.9 C 1.6 km/h
232 21-11-2020 19:15:00 4.9 C 5.87 g/m*3 4.9 C 0 km/h
233 21-11-2020 19:20:00 4.9 C 5.94 g/m*3 4.9 C 0 km/h
234 21-11-2020 19:25:00 4.9 C 5.94 g/m*3 4.9 C 0 km/h
235 21-11-2020 19:30:00 4.9 C 5.94 g/m*3 4.9 C 0 km/h
236 21-11-2020 19:35:00 4.9 C 5.94 g/m*3 4.9 C 3.2 km/h
237 21-11-2020 19:40:00 4.9 C 5.94 g/m*3 4.9 C 3.2 km/h
238 21-11-2020 19:45:00 4.9 C 5.94 g/m*3 4.9 C 0 km/h
239 21-11-2020 19:50:00 4.8 C 5.9 g/m*3 4.8 C 0 km/h
240 21-11-2020 19:55:00 4.8 C 5.9 g/m*3 4.8 C 0 km/h
241 21-11-2020 20:00:00 4.7 C 5.8 g/m*3 4.7 C 1.6 km/h
242 21-11-2020 20:05:00 4.5 C 5.78 g/m*3 4.5 C 0 km/h
243 21-11-2020 20:10:00 4.4 C 5.75 g/m*3 4.4 C 1.6 km/h
244 21-11-2020 20:15:00 4.2 C 5.67 g/m*3 4.2 C 0 km/h
245 21-11-2020 20:20:00 4.1 C 5.63 g/m*3 4.1 C 0 km/h
246 21-11-2020 20:25:00 4 C 5.66 g/m*3 4 C 1.6 km/h
247 21-11-2020 20:30:00 3.9 C 5.62 g/m*3 2.32 C 6.4 km/h
248 21-11-2020 20:35:00 3.9 C 5.62 g/m*3 3.9 C 4.8 km/h
249 21-11-2020 20:40:00 3.9 C 5.62 g/m*3 1.82 C 8.1 km/h
250 21-11-2020 20:45:00 3.9 C 5.62 g/m*3 1.82 C 8.1 km/h
Sensor: Nr:Datum:Temp:Abs-Feuchte:Windchill:Wind:
Aussen-T/F 251 21-11-2020 20:50:00 4.1 C 5.7 g/m*3 2.05 C 8.1 km/h
252 21-11-2020 20:55:00 4.1 C 5.7 g/m*3 2.55 C 6.4 km/h
253 21-11-2020 21:00:00 4.2 C 5.67 g/m*3 2.17 C 8.1 km/h
254 21-11-2020 21:05:00 4.3 C 5.71 g/m*3 2.78 C 6.4 km/h
255 21-11-2020 21:10:00 4.3 C 5.71 g/m*3 2.78 C 6.4 km/h
256 21-11-2020 21:15:00 4.3 C 5.71 g/m*3 4.3 C 3.2 km/h
257 21-11-2020 21:20:00 4.2 C 5.61 g/m*3 4.2 C 4.8 km/h
258 21-11-2020 21:25:00 4.1 C 5.63 g/m*3 4.1 C 4.8 km/h
259 21-11-2020 21:30:00 3.9 C 5.56 g/m*3 3.9 C 4.8 km/h
260 21-11-2020 21:35:00 3.9 C 5.56 g/m*3 3.9 C 3.2 km/h
261 21-11-2020 21:40:00 3.9 C 5.62 g/m*3 3.9 C 1.6 km/h
262 21-11-2020 21:45:00 3.9 C 5.62 g/m*3 2.32 C 6.4 km/h
263 21-11-2020 21:50:00 4.1 C 5.7 g/m*3 2.05 C 8.1 km/h
264 21-11-2020 21:55:00 4.2 C 5.73 g/m*3 2.17 C 8.1 km/h
265 21-11-2020 22:00:00 4.3 C 5.77 g/m*3 2.29 C 8.1 km/h
266 21-11-2020 22:05:00 4.3 C 5.77 g/m*3 4.3 C 3.2 km/h
267 21-11-2020 22:10:00 4.4 C 5.81 g/m*3 4.4 C 3.2 km/h
268 21-11-2020 22:15:00 4.4 C 5.75 g/m*3 4.4 C 3.2 km/h
269 21-11-2020 22:20:00 4.4 C 5.75 g/m*3 2.9 C 6.4 km/h
270 21-11-2020 22:25:00 4.6 C 5.82 g/m*3 2.64 C 8.1 km/h
271 21-11-2020 22:30:00 4.7 C 5.86 g/m*3 3.25 C 6.4 km/h
272 21-11-2020 22:35:00 4.7 C 5.86 g/m*3 3.25 C 6.4 km/h
273 21-11-2020 22:40:00 4.7 C 5.86 g/m*3 4.7 C 4.8 km/h
274 21-11-2020 22:45:00 4.8 C 5.9 g/m*3 4.8 C 4.8 km/h
275 21-11-2020 22:50:00 4.9 C 5.94 g/m*3 2.27 C 11.3 km/h
Sensor: Nr:Datum:Temp:Abs-Feuchte:Windchill:Wind:
Aussen-T/F 276 21-11-2020 22:55:00 5.1 C 6.02 g/m*3 2.84 C 9.7 km/h
277 21-11-2020 23:00:00 5.3 C 6.03 g/m*3 2.2 C 14.5 km/h
278 21-11-2020 23:05:00 5.4 C 6 g/m*3 2.58 C 12.9 km/h
279 21-11-2020 23:10:00 5.4 C 6 g/m*3 2.32 C 14.5 km/h
280 21-11-2020 23:15:00 5.4 C 6 g/m*3 2.58 C 12.9 km/h
281 21-11-2020 23:20:00 5.5 C 6.04 g/m*3 2.44 C 14.5 km/h
282 21-11-2020 23:25:00 5.5 C 6.04 g/m*3 2.99 C 11.3 km/h
283 21-11-2020 23:30:00 5.6 C 6.08 g/m*3 3.11 C 11.3 km/h
284 21-11-2020 23:35:00 5.6 C 6.08 g/m*3 3.11 C 11.3 km/h
285 21-11-2020 23:40:00 5.6 C 6.01 g/m*3 2.83 C 12.9 km/h
286 21-11-2020 23:45:00 5.7 C 6.05 g/m*3 2.69 C 14.5 km/h
287 21-11-2020 23:50:00 5.7 C 6.05 g/m*3 2.95 C 12.9 km/h
288 21-11-2020 23:55:00 5.7 C 6.05 g/m*3 2.95 C 12.9 km/h
289 22-11-2020 00:00:00 5.7 C 6.05 g/m*3 2.69 C 14.5 km/h
290 22-11-2020 00:05:00 5.7 C 6.05 g/m*3 2.95 C 12.9 km/h
291 22-11-2020 00:10:00 5.8 C 6.09 g/m*3 3.36 C 11.3 km/h
292 22-11-2020 00:15:00 5.8 C 6.09 g/m*3 3.07 C 12.9 km/h
293 22-11-2020 00:20:00 5.8 C 6.09 g/m*3 2.81 C 14.5 km/h
294 22-11-2020 00:25:00 5.8 C 6.09 g/m*3 3.68 C 9.7 km/h
295 22-11-2020 00:30:00 5.8 C 6.09 g/m*3 2.58 C 16.1 km/h
296 22-11-2020 00:35:00 5.8 C 6.09 g/m*3 2.58 C 16.1 km/h
297 22-11-2020 00:40:00 5.8 C 6.09 g/m*3 3.07 C 12.9 km/h
298 22-11-2020 00:45:00 5.8 C 6.09 g/m*3 4.05 C 8.1 km/h
299 22-11-2020 00:50:00 5.8 C 6.09 g/m*3 2.81 C 14.5 km/h
300 22-11-2020 00:55:00 5.8 C 6.09 g/m*3 2.81 C 14.5 km/h
Sensor: Nr:Datum:Temp:Abs-Feuchte:Windchill:Wind:
Aussen-T/F 301 22-11-2020 01:00:00 5.8 C 6.09 g/m*3 3.07 C 12.9 km/h
302 22-11-2020 01:05:00 5.8 C 6.09 g/m*3 3.36 C 11.3 km/h
303 22-11-2020 01:10:00 5.8 C 6.09 g/m*3 3.07 C 12.9 km/h
304 22-11-2020 01:15:00 5.9 C 6.13 g/m*3 3.48 C 11.3 km/h
305 22-11-2020 01:20:00 5.9 C 6.13 g/m*3 3.19 C 12.9 km/h
306 22-11-2020 01:25:00 5.9 C 6.13 g/m*3 3.19 C 12.9 km/h
307 22-11-2020 01:30:00 6 C 6.17 g/m*3 3.6 C 11.3 km/h
308 22-11-2020 01:35:00 6.1 C 6.21 g/m*3 3.43 C 12.9 km/h
309 22-11-2020 01:40:00 6.1 C 6.21 g/m*3 4.4 C 8.1 km/h
310 22-11-2020 01:45:00 6.1 C 6.21 g/m*3 4.04 C 9.7 km/h
311 22-11-2020 01:50:00 6.2 C 6.25 g/m*3 3.56 C 12.9 km/h
312 22-11-2020 01:55:00 6.2 C 6.18 g/m*3 3.84 C 11.3 km/h
313 22-11-2020 02:00:00 6.3 C 6.22 g/m*3 3.96 C 11.3 km/h
314 22-11-2020 02:05:00 6.3 C 6.22 g/m*3 4.27 C 9.7 km/h
315 22-11-2020 02:10:00 6.3 C 6.22 g/m*3 3.96 C 11.3 km/h
316 22-11-2020 02:15:00 6.3 C 6.22 g/m*3 3.96 C 11.3 km/h
317 22-11-2020 02:20:00 6.3 C 6.22 g/m*3 4.27 C 9.7 km/h
318 22-11-2020 02:25:00 6.3 C 6.22 g/m*3 3.68 C 12.9 km/h
319 22-11-2020 02:30:00 6.3 C 6.22 g/m*3 4.64 C 8.1 km/h
320 22-11-2020 02:35:00 6.3 C 6.22 g/m*3 3.96 C 11.3 km/h
321 22-11-2020 02:40:00 6.3 C 6.22 g/m*3 3.43 C 14.5 km/h
322 22-11-2020 02:45:00 6.3 C 6.22 g/m*3 3.68 C 12.9 km/h
323 22-11-2020 02:50:00 6.3 C 6.22 g/m*3 3.68 C 12.9 km/h
324 22-11-2020 02:55:00 6.3 C 6.22 g/m*3 3.96 C 11.3 km/h
325 22-11-2020 03:00:00 6.3 C 6.22 g/m*3 3.96 C 11.3 km/h
Sensor: Nr:Datum:Temp:Abs-Feuchte:Windchill:Wind:
Aussen-T/F 326 22-11-2020 03:05:00 6.3 C 6.22 g/m*3 3.43 C 14.5 km/h
327 22-11-2020 03:10:00 6.3 C 6.22 g/m*3 4.27 C 9.7 km/h
328 22-11-2020 03:15:00 6.3 C 6.22 g/m*3 3.68 C 12.9 km/h
329 22-11-2020 03:20:00 6.3 C 6.22 g/m*3 3.43 C 14.5 km/h
330 22-11-2020 03:25:00 6.3 C 6.22 g/m*3 3.96 C 11.3 km/h
331 22-11-2020 03:30:00 6.3 C 6.14 g/m*3 3.68 C 12.9 km/h
332 22-11-2020 03:35:00 6.3 C 6.22 g/m*3 4.64 C 8.1 km/h
333 22-11-2020 03:40:00 6.3 C 6.22 g/m*3 3.96 C 11.3 km/h
334 22-11-2020 03:45:00 6.3 C 6.22 g/m*3 3.43 C 14.5 km/h
335 22-11-2020 03:50:00 6.3 C 6.22 g/m*3 3.43 C 14.5 km/h
336 22-11-2020 03:55:00 6.4 C 6.26 g/m*3 3.55 C 14.5 km/h
337 22-11-2020 04:00:00 6.4 C 6.26 g/m*3 3.32 C 16.1 km/h
338 22-11-2020 04:05:00 6.4 C 6.18 g/m*3 3.8 C 12.9 km/h
339 22-11-2020 04:10:00 6.4 C 6.18 g/m*3 3.11 C 17.7 km/h
340 22-11-2020 04:15:00 6.5 C 6.22 g/m*3 3.44 C 16.1 km/h
341 22-11-2020 04:20:00 6.6 C 6.27 g/m*3 3.17 C 19.3 km/h
342 22-11-2020 04:25:00 6.6 C 6.27 g/m*3 3.17 C 19.3 km/h
343 22-11-2020 04:30:00 6.6 C 6.27 g/m*3 3.79 C 14.5 km/h
344 22-11-2020 04:35:00 6.6 C 6.27 g/m*3 4.04 C 12.9 km/h
345 22-11-2020 04:40:00 6.6 C 6.27 g/m*3 3.36 C 17.7 km/h
346 22-11-2020 04:45:00 6.6 C 6.27 g/m*3 3.57 C 16.1 km/h
347 22-11-2020 04:50:00 6.4 C 6.18 g/m*3 3.55 C 14.5 km/h
348 22-11-2020 04:55:00 6.4 C 6.18 g/m*3 3.55 C 14.5 km/h
349 22-11-2020 05:00:00 6.4 C 6.26 g/m*3 3.32 C 16.1 km/h
350 22-11-2020 05:05:00 6.4 C 6.26 g/m*3 3.8 C 12.9 km/h
Sensor: Nr:Datum:Temp:Abs-Feuchte:Windchill:Wind:
Aussen-T/F 351 22-11-2020 05:10:00 6.5 C 6.3 g/m*3 3.67 C 14.5 km/h
352 22-11-2020 05:15:00 6.6 C 6.34 g/m*3 3.79 C 14.5 km/h
353 22-11-2020 05:20:00 6.6 C 6.27 g/m*3 3.57 C 16.1 km/h
354 22-11-2020 05:25:00 6.6 C 6.34 g/m*3 4.04 C 12.9 km/h
355 22-11-2020 05:30:00 6.6 C 6.27 g/m*3 3.57 C 16.1 km/h
356 22-11-2020 05:35:00 6.7 C 6.31 g/m*3 3.92 C 14.5 km/h
357 22-11-2020 05:40:00 6.7 C 6.31 g/m*3 4.17 C 12.9 km/h
358 22-11-2020 05:45:00 6.7 C 6.31 g/m*3 3.92 C 14.5 km/h
359 22-11-2020 05:50:00 6.7 C 6.31 g/m*3 4.17 C 12.9 km/h
360 22-11-2020 05:55:00 6.7 C 6.31 g/m*3 4.44 C 11.3 km/h
361 22-11-2020 06:00:00 6.7 C 6.38 g/m*3 3.69 C 16.1 km/h
362 22-11-2020 06:05:00 6.7 C 6.38 g/m*3 4.75 C 9.7 km/h
363 22-11-2020 06:10:00 6.8 C 6.35 g/m*3 4.04 C 14.5 km/h
364 22-11-2020 06:15:00 6.8 C 6.42 g/m*3 4.87 C 9.7 km/h
365 22-11-2020 06:20:00 6.8 C 6.42 g/m*3 4.56 C 11.3 km/h
366 22-11-2020 06:25:00 6.7 C 6.38 g/m*3 4.44 C 11.3 km/h
367 22-11-2020 06:30:00 6.8 C 6.42 g/m*3 4.29 C 12.9 km/h
368 22-11-2020 06:35:00 6.8 C 6.42 g/m*3 3.82 C 16.1 km/h
369 22-11-2020 06:40:00 6.8 C 6.42 g/m*3 3.82 C 16.1 km/h
370 22-11-2020 06:45:00 6.9 C 6.47 g/m*3 4.68 C 11.3 km/h
371 22-11-2020 06:50:00 6.9 C 6.39 g/m*3 4.16 C 14.5 km/h
372 22-11-2020 06:55:00 7 C 6.43 g/m*3 3.49 C 20.9 km/h
373 22-11-2020 07:00:00 6.9 C 6.39 g/m*3 4.16 C 14.5 km/h
374 22-11-2020 07:05:00 6.9 C 6.39 g/m*3 3.73 C 17.7 km/h
375 22-11-2020 07:10:00 6.9 C 6.39 g/m*3 4.41 C 12.9 km/h
Sensor: Nr:Datum:Temp:Abs-Feuchte:Windchill:Wind:
Aussen-T/F 376 22-11-2020 07:15:00 6.9 C 6.47 g/m*3 4.41 C 12.9 km/h
377 22-11-2020 07:20:00 6.9 C 6.47 g/m*3 4.41 C 12.9 km/h
378 22-11-2020 07:25:00 6.9 C 6.47 g/m*3 3.94 C 16.1 km/h
379 22-11-2020 07:30:00 6.9 C 6.47 g/m*3 4.16 C 14.5 km/h
380 22-11-2020 07:35:00 6.9 C 6.47 g/m*3 4.16 C 14.5 km/h
381 22-11-2020 07:40:00 6.9 C 6.47 g/m*3 3.94 C 16.1 km/h
382 22-11-2020 07:45:00 6.9 C 6.47 g/m*3 4.41 C 12.9 km/h
383 22-11-2020 07:50:00 6.8 C 6.42 g/m*3 4.04 C 14.5 km/h
384 22-11-2020 07:55:00 6.8 C 6.42 g/m*3 4.87 C 9.7 km/h
385 22-11-2020 08:00:00 6.8 C 6.42 g/m*3 4.56 C 11.3 km/h
386 22-11-2020 08:05:00 6.8 C 6.42 g/m*3 4.56 C 11.3 km/h
387 22-11-2020 08:10:00 6.8 C 6.5 g/m*3 4.87 C 9.7 km/h
388 22-11-2020 08:15:00 6.8 C 6.5 g/m*3 4.04 C 14.5 km/h
389 22-11-2020 08:20:00 6.9 C 6.54 g/m*3 3.54 C 19.3 km/h
390 22-11-2020 08:25:00 6.9 C 6.47 g/m*3 3.94 C 16.1 km/h
391 22-11-2020 08:30:00 6.9 C 6.47 g/m*3 4.16 C 14.5 km/h
392 22-11-2020 08:35:00 6.9 C 6.54 g/m*3 4.41 C 12.9 km/h
393 22-11-2020 08:40:00 6.9 C 6.54 g/m*3 4.16 C 14.5 km/h
394 22-11-2020 08:45:00 6.9 C 6.54 g/m*3 4.16 C 14.5 km/h
395 22-11-2020 08:50:00 6.9 C 6.54 g/m*3 3.73 C 17.7 km/h
396 22-11-2020 08:55:00 7 C 6.59 g/m*3 4.06 C 16.1 km/h
397 22-11-2020 09:00:00 7.1 C 6.63 g/m*3 3.98 C 17.7 km/h
398 22-11-2020 09:05:00 7.1 C 6.63 g/m*3 3.98 C 17.7 km/h
399 22-11-2020 09:10:00 7.1 C 6.63 g/m*3 4.41 C 14.5 km/h
400 22-11-2020 09:15:00 7.2 C 6.67 g/m*3 4.31 C 16.1 km/h
Sensor: Nr:Datum:Temp:Abs-Feuchte:Windchill:Wind:
Aussen-T/F 401 22-11-2020 09:20:00 7.2 C 6.67 g/m*3 4.53 C 14.5 km/h
402 22-11-2020 09:25:00 7.3 C 6.72 g/m*3 4.23 C 17.7 km/h
403 22-11-2020 09:30:00 7.3 C 6.72 g/m*3 5.16 C 11.3 km/h
404 22-11-2020 09:35:00 7.4 C 6.76 g/m*3 5.28 C 11.3 km/h
405 22-11-2020 09:40:00 7.4 C 6.76 g/m*3 5.58 C 9.7 km/h
406 22-11-2020 09:45:00 7.4 C 6.76 g/m*3 5.28 C 11.3 km/h
407 22-11-2020 09:50:00 7.4 C 6.76 g/m*3 5.02 C 12.9 km/h
408 22-11-2020 09:55:00 7.4 C 6.76 g/m*3 5.28 C 11.3 km/h
409 22-11-2020 10:00:00 7.4 C 6.76 g/m*3 4.78 C 14.5 km/h
410 22-11-2020 10:05:00 7.5 C 6.8 g/m*3 4.9 C 14.5 km/h
411 22-11-2020 10:10:00 7.6 C 6.85 g/m*3 5.26 C 12.9 km/h
412 22-11-2020 10:15:00 7.6 C 6.85 g/m*3 5.26 C 12.9 km/h
413 22-11-2020 10:20:00 7.6 C 6.85 g/m*3 5.02 C 14.5 km/h
414 22-11-2020 10:25:00 7.6 C 6.77 g/m*3 4.42 C 19.3 km/h
415 22-11-2020 10:30:00 7.6 C 6.77 g/m*3 4.81 C 16.1 km/h
416 22-11-2020 10:35:00 7.6 C 6.77 g/m*3 4.42 C 19.3 km/h
417 22-11-2020 10:40:00 7.6 C 6.77 g/m*3 4.81 C 16.1 km/h
418 22-11-2020 10:45:00 7.7 C 6.81 g/m*3 4.93 C 16.1 km/h
419 22-11-2020 10:50:00 7.8 C 6.86 g/m*3 4.86 C 17.7 km/h
420 22-11-2020 10:55:00 7.9 C 6.9 g/m*3 4.63 C 20.9 km/h
421 22-11-2020 11:00:00 7.9 C 6.9 g/m*3 4.63 C 20.9 km/h
422 22-11-2020 11:05:00 8 C 6.94 g/m*3 6.01 C 11.3 km/h
423 22-11-2020 11:10:00 8.1 C 6.99 g/m*3 5.64 C 14.5 km/h
424 22-11-2020 11:15:00 8.1 C 6.99 g/m*3 6.42 C 9.7 km/h
425 22-11-2020 11:20:00 8.1 C 6.99 g/m*3 5.23 C 17.7 km/h
Sensor: Nr:Datum:Temp:Abs-Feuchte:Windchill:Wind:
Aussen-T/F 426 22-11-2020 11:25:00 8 C 6.94 g/m*3 5.52 C 14.5 km/h
427 22-11-2020 11:30:00 8.1 C 6.99 g/m*3 5.64 C 14.5 km/h
428 22-11-2020 11:35:00 8.1 C 6.99 g/m*3 6.42 C 9.7 km/h
429 22-11-2020 11:40:00 8.1 C 6.99 g/m*3 5.23 C 17.7 km/h
430 22-11-2020 11:45:00 8.2 C 7.03 g/m*3 5.99 C 12.9 km/h
431 22-11-2020 11:50:00 8.2 C 7.03 g/m*3 5.55 C 16.1 km/h
432 22-11-2020 11:55:00 8.3 C 7 g/m*3 6.66 C 9.7 km/h
433 22-11-2020 12:00:00 8.3 C 7 g/m*3 5.68 C 16.1 km/h
434 22-11-2020 12:05:00 8.3 C 7.08 g/m*3 6.12 C 12.9 km/h
435 22-11-2020 12:10:00 8.3 C 7 g/m*3 5.89 C 14.5 km/h
436 22-11-2020 12:15:00 8.3 C 7 g/m*3 6.12 C 12.9 km/h
437 22-11-2020 12:20:00 8.3 C 7.08 g/m*3 6.12 C 12.9 km/h
438 22-11-2020 12:25:00 8.4 C 7.13 g/m*3 5.8 C 16.1 km/h
439 22-11-2020 12:30:00 8.5 C 7.09 g/m*3 5.73 C 17.7 km/h
440 22-11-2020 12:35:00 8.5 C 7.09 g/m*3 5.73 C 17.7 km/h
441 22-11-2020 12:40:00 8.5 C 7.17 g/m*3 6.13 C 14.5 km/h
442 22-11-2020 12:45:00 8.6 C 7.13 g/m*3 7.34 C 8.1 km/h
443 22-11-2020 12:50:00 8.7 C 7.18 g/m*3 6.38 C 14.5 km/h
444 22-11-2020 12:55:00 8.7 C 7.18 g/m*3 6.6 C 12.9 km/h
445 22-11-2020 13:00:00 8.7 C 7.18 g/m*3 6.85 C 11.3 km/h
446 22-11-2020 13:05:00 8.7 C 7.18 g/m*3 6.17 C 16.1 km/h
447 22-11-2020 13:10:00 8.7 C 7.18 g/m*3 6.6 C 12.9 km/h
448 22-11-2020 13:15:00 8.8 C 7.22 g/m*3 6.3 C 16.1 km/h
449 22-11-2020 13:20:00 8.8 C 7.22 g/m*3 6.72 C 12.9 km/h
450 22-11-2020 13:25:00 8.8 C 7.22 g/m*3 6.72 C 12.9 km/h
Sensor: Nr:Datum:Temp:Abs-Feuchte:Windchill:Wind:
Aussen-T/F 451 22-11-2020 13:30:00 8.8 C 7.22 g/m*3 6.72 C 12.9 km/h
452 22-11-2020 13:35:00 8.8 C 7.22 g/m*3 6.3 C 16.1 km/h
453 22-11-2020 13:40:00 8.8 C 7.22 g/m*3 6.72 C 12.9 km/h
454 22-11-2020 13:45:00 8.8 C 7.22 g/m*3 6.3 C 16.1 km/h
455 22-11-2020 13:50:00 8.8 C 7.22 g/m*3 6.72 C 12.9 km/h
456 22-11-2020 13:55:00 8.9 C 7.27 g/m*3 7.09 C 11.3 km/h
457 22-11-2020 14:00:00 8.9 C 7.27 g/m*3 6.42 C 16.1 km/h
458 22-11-2020 14:05:00 8.9 C 7.27 g/m*3 7.09 C 11.3 km/h
459 22-11-2020 14:10:00 8.9 C 7.27 g/m*3 7.09 C 11.3 km/h
460 22-11-2020 14:15:00 8.9 C 7.27 g/m*3 7.69 C 8.1 km/h
461 22-11-2020 14:20:00 8.9 C 7.27 g/m*3 7.37 C 9.7 km/h
462 22-11-2020 14:25:00 8.9 C 7.27 g/m*3 7.09 C 11.3 km/h
463 22-11-2020 14:30:00 8.9 C 7.27 g/m*3 7.69 C 8.1 km/h
464 22-11-2020 14:35:00 9 C 7.32 g/m*3 9 C 4.8 km/h
465 22-11-2020 14:40:00 9.1 C 7.36 g/m*3 7.09 C 12.9 km/h
466 22-11-2020 14:45:00 9 C 7.32 g/m*3 6.75 C 14.5 km/h
467 22-11-2020 14:50:00 9 C 7.32 g/m*3 7.49 C 9.7 km/h
468 22-11-2020 14:55:00 9 C 7.32 g/m*3 7.21 C 11.3 km/h
469 22-11-2020 15:00:00 9 C 7.32 g/m*3 8.21 C 6.4 km/h
470 22-11-2020 15:05:00 9 C 7.32 g/m*3 7.81 C 8.1 km/h
471 22-11-2020 15:10:00 9 C 7.32 g/m*3 7.21 C 11.3 km/h
472 22-11-2020 15:15:00 9 C 7.32 g/m*3 6.97 C 12.9 km/h
473 22-11-2020 15:20:00 9 C 7.32 g/m*3 7.21 C 11.3 km/h
474 22-11-2020 15:25:00 9 C 7.32 g/m*3 6.54 C 16.1 km/h
475 22-11-2020 15:30:00 9 C 7.32 g/m*3 7.21 C 11.3 km/h
Sensor: Nr:Datum:Temp:Abs-Feuchte:Windchill:Wind:
Aussen-T/F 476 22-11-2020 15:35:00 9 C 7.32 g/m*3 6.75 C 14.5 km/h
477 22-11-2020 15:40:00 9 C 7.32 g/m*3 6.97 C 12.9 km/h
478 22-11-2020 15:45:00 8.9 C 7.27 g/m*3 6.85 C 12.9 km/h
479 22-11-2020 15:50:00 8.9 C 7.36 g/m*3 6.42 C 16.1 km/h
480 22-11-2020 15:55:00 8.9 C 7.36 g/m*3 6.85 C 12.9 km/h
481 22-11-2020 16:00:00 8.9 C 7.36 g/m*3 7.09 C 11.3 km/h
482 22-11-2020 16:05:00 8.9 C 7.36 g/m*3 7.69 C 8.1 km/h
483 22-11-2020 16:10:00 8.9 C 7.36 g/m*3 7.09 C 11.3 km/h
484 22-11-2020 16:15:00 8.9 C 7.36 g/m*3 7.69 C 8.1 km/h
485 22-11-2020 16:20:00 8.9 C 7.45 g/m*3 8.9 C 4.8 km/h
486 22-11-2020 16:25:00 8.9 C 7.36 g/m*3 7.69 C 8.1 km/h
487 22-11-2020 16:30:00 8.9 C 7.36 g/m*3 7.37 C 9.7 km/h
488 22-11-2020 16:35:00 8.9 C 7.45 g/m*3 8.1 C 6.4 km/h
489 22-11-2020 16:40:00 8.9 C 7.36 g/m*3 7.69 C 8.1 km/h
490 22-11-2020 16:45:00 8.8 C 7.4 g/m*3 7.58 C 8.1 km/h
491 22-11-2020 16:50:00 8.8 C 7.31 g/m*3 7.58 C 8.1 km/h
492 22-11-2020 16:55:00 8.8 C 7.4 g/m*3 7.25 C 9.7 km/h
493 22-11-2020 17:00:00 8.8 C 7.4 g/m*3 6.72 C 12.9 km/h
494 22-11-2020 17:05:00 8.8 C 7.4 g/m*3 7.58 C 8.1 km/h
495 22-11-2020 17:10:00 8.8 C 7.4 g/m*3 7.58 C 8.1 km/h
496 22-11-2020 17:15:00 8.8 C 7.4 g/m*3 7.58 C 8.1 km/h
497 22-11-2020 17:20:00 8.7 C 7.35 g/m*3 7.46 C 8.1 km/h
498 22-11-2020 17:25:00 8.7 C 7.35 g/m*3 7.13 C 9.7 km/h
499 22-11-2020 17:30:00 8.7 C 7.35 g/m*3 7.87 C 6.4 km/h
500 22-11-2020 17:35:00 8.7 C 7.35 g/m*3 7.13 C 9.7 km/h
Sensor: Nr:Datum:Temp:Abs-Feuchte:Windchill:Wind:
Aussen-T/F 501 22-11-2020 17:40:00 8.7 C 7.35 g/m*3 7.46 C 8.1 km/h
502 22-11-2020 17:45:00 8.7 C 7.35 g/m*3 7.13 C 9.7 km/h
503 22-11-2020 17:50:00 8.7 C 7.35 g/m*3 7.87 C 6.4 km/h
504 22-11-2020 17:55:00 8.7 C 7.35 g/m*3 7.13 C 9.7 km/h
505 22-11-2020 18:00:00 8.6 C 7.3 g/m*3 6.73 C 11.3 km/h
506 22-11-2020 18:05:00 8.6 C 7.3 g/m*3 7.01 C 9.7 km/h
507 22-11-2020 18:10:00 8.6 C 7.3 g/m*3 7.01 C 9.7 km/h
508 22-11-2020 18:15:00 8.6 C 7.3 g/m*3 7.34 C 8.1 km/h
509 22-11-2020 18:20:00 8.5 C 7.26 g/m*3 7.64 C 6.4 km/h
510 22-11-2020 18:25:00 8.5 C 7.26 g/m*3 6.9 C 9.7 km/h
511 22-11-2020 18:30:00 8.5 C 7.26 g/m*3 6.9 C 9.7 km/h
512 22-11-2020 18:35:00 8.5 C 7.26 g/m*3 8.5 C 4.8 km/h
513 22-11-2020 18:40:00 8.5 C 7.26 g/m*3 6.9 C 9.7 km/h
514 22-11-2020 18:45:00 8.5 C 7.26 g/m*3 6.9 C 9.7 km/h
515 22-11-2020 18:50:00 8.5 C 7.26 g/m*3 6.9 C 9.7 km/h
516 22-11-2020 18:55:00 8.5 C 7.26 g/m*3 6.36 C 12.9 km/h
517 22-11-2020 19:00:00 8.5 C 7.26 g/m*3 6.61 C 11.3 km/h
518 22-11-2020 19:05:00 8.5 C 7.26 g/m*3 7.22 C 8.1 km/h
519 22-11-2020 19:10:00 8.4 C 7.21 g/m*3 8.4 C 4.8 km/h
520 22-11-2020 19:15:00 8.4 C 7.21 g/m*3 7.52 C 6.4 km/h
521 22-11-2020 19:20:00 8.4 C 7.21 g/m*3 8.4 C 4.8 km/h
522 22-11-2020 19:25:00 8.4 C 7.3 g/m*3 8.4 C 4.8 km/h
523 22-11-2020 19:30:00 8.4 C 7.21 g/m*3 8.4 C 3.2 km/h
524 22-11-2020 19:35:00 8.4 C 7.21 g/m*3 8.4 C 1.6 km/h
525 22-11-2020 19:40:00 8.4 C 7.3 g/m*3 8.4 C 4.8 km/h
Sensor: Nr:Datum:Temp:Abs-Feuchte:Windchill:Wind:
Aussen-T/F 526 22-11-2020 19:45:00 8.4 C 7.3 g/m*3 7.52 C 6.4 km/h
527 22-11-2020 19:50:00 8.4 C 7.21 g/m*3 6.78 C 9.7 km/h
528 22-11-2020 19:55:00 8.4 C 7.3 g/m*3 7.52 C 6.4 km/h
529 22-11-2020 20:00:00 8.3 C 7.25 g/m*3 7.41 C 6.4 km/h
530 22-11-2020 20:05:00 8.3 C 7.16 g/m*3 8.3 C 4.8 km/h
531 22-11-2020 20:10:00 8.3 C 7.16 g/m*3 6.99 C 8.1 km/h
532 22-11-2020 20:15:00 8.4 C 7.21 g/m*3 7.52 C 6.4 km/h
533 22-11-2020 20:20:00 8.4 C 7.21 g/m*3 8.4 C 3.2 km/h
534 22-11-2020 20:25:00 8.4 C 7.3 g/m*3 8.4 C 4.8 km/h
535 22-11-2020 20:30:00 8.4 C 7.3 g/m*3 7.52 C 6.4 km/h
536 22-11-2020 20:35:00 8.4 C 7.3 g/m*3 7.11 C 8.1 km/h
537 22-11-2020 20:40:00 8.3 C 7.25 g/m*3 6.66 C 9.7 km/h
538 22-11-2020 20:45:00 8.3 C 7.25 g/m*3 8.3 C 4.8 km/h
539 22-11-2020 20:50:00 8.3 C 7.25 g/m*3 7.41 C 6.4 km/h
540 22-11-2020 20:55:00 8.3 C 7.25 g/m*3 7.41 C 6.4 km/h
541 22-11-2020 21:00:00 8.3 C 7.25 g/m*3 7.41 C 6.4 km/h
542 22-11-2020 21:05:00 8.3 C 7.25 g/m*3 8.3 C 4.8 km/h
543 22-11-2020 21:10:00 8.3 C 7.25 g/m*3 6.99 C 8.1 km/h
544 22-11-2020 21:15:00 8.3 C 7.33 g/m*3 8.3 C 4.8 km/h
545 22-11-2020 21:20:00 8.3 C 7.33 g/m*3 7.41 C 6.4 km/h
546 22-11-2020 21:25:00 8.3 C 7.33 g/m*3 7.41 C 6.4 km/h
547 22-11-2020 21:30:00 8.3 C 7.33 g/m*3 8.3 C 4.8 km/h
548 22-11-2020 21:35:00 8.3 C 7.33 g/m*3 8.3 C 3.2 km/h
549 22-11-2020 21:40:00 8.3 C 7.33 g/m*3 7.41 C 6.4 km/h
550 22-11-2020 21:45:00 8.3 C 7.33 g/m*3 8.3 C 3.2 km/h
Sensor: Nr:Datum:Temp:Abs-Feuchte:Windchill:Wind:
Aussen-T/F 551 22-11-2020 21:50:00 8.3 C 7.33 g/m*3 6.66 C 9.7 km/h
552 22-11-2020 21:55:00 8.3 C 7.33 g/m*3 6.99 C 8.1 km/h
553 22-11-2020 22:00:00 8.3 C 7.33 g/m*3 7.41 C 6.4 km/h
554 22-11-2020 22:05:00 8.3 C 7.33 g/m*3 6.66 C 9.7 km/h
555 22-11-2020 22:10:00 8.3 C 7.33 g/m*3 7.41 C 6.4 km/h
556 22-11-2020 22:15:00 8.3 C 7.33 g/m*3 6.99 C 8.1 km/h
557 22-11-2020 22:20:00 8.3 C 7.33 g/m*3 6.99 C 8.1 km/h
558 22-11-2020 22:25:00 8.3 C 7.33 g/m*3 6.12 C 12.9 km/h
559 22-11-2020 22:30:00 8.3 C 7.33 g/m*3 6.99 C 8.1 km/h
560 22-11-2020 22:35:00 8.3 C 7.33 g/m*3 6.66 C 9.7 km/h
561 22-11-2020 22:40:00 8.3 C 7.33 g/m*3 6.99 C 8.1 km/h
562 22-11-2020 22:45:00 8.3 C 7.33 g/m*3 6.99 C 8.1 km/h
563 22-11-2020 22:50:00 8.3 C 7.33 g/m*3 7.41 C 6.4 km/h
564 22-11-2020 22:55:00 8.3 C 7.42 g/m*3 8.3 C 4.8 km/h
565 22-11-2020 23:00:00 8.3 C 7.42 g/m*3 6.99 C 8.1 km/h
566 22-11-2020 23:05:00 8.3 C 7.42 g/m*3 8.3 C 3.2 km/h
567 22-11-2020 23:10:00 8.3 C 7.42 g/m*3 8.3 C 3.2 km/h
568 22-11-2020 23:15:00 8.3 C 7.42 g/m*3 8.3 C 4.8 km/h
569 22-11-2020 23:20:00 8.3 C 7.42 g/m*3 8.3 C 4.8 km/h
570 22-11-2020 23:25:00 8.3 C 7.42 g/m*3 8.3 C 4.8 km/h
571 22-11-2020 23:30:00 8.3 C 7.42 g/m*3 6.99 C 8.1 km/h
572 22-11-2020 23:35:00 8.3 C 7.42 g/m*3 6.66 C 9.7 km/h
573 22-11-2020 23:40:00 8.3 C 7.42 g/m*3 7.41 C 6.4 km/h
574 22-11-2020 23:45:00 8.3 C 7.42 g/m*3 6.99 C 8.1 km/h
575 22-11-2020 23:50:00 8.3 C 7.42 g/m*3 8.3 C 4.8 km/h
Sensor: Nr:Datum:Temp:Abs-Feuchte:Windchill:Wind:
Aussen-T/F 576 22-11-2020 23:55:00 8.3 C 7.42 g/m*3 8.3 C 4.8 km/h
577 23-11-2020 00:00:00 8.3 C 7.42 g/m*3 7.41 C 6.4 km/h
578 23-11-2020 00:05:00 8.3 C 7.42 g/m*3 7.41 C 6.4 km/h
579 23-11-2020 00:10:00 8.3 C 7.42 g/m*3 6.99 C 8.1 km/h
580 23-11-2020 00:15:00 8.3 C 7.42 g/m*3 6.99 C 8.1 km/h
581 23-11-2020 00:20:00 8.2 C 7.37 g/m*3 6.87 C 8.1 km/h
582 23-11-2020 00:25:00 8.2 C 7.37 g/m*3 7.29 C 6.4 km/h
583 23-11-2020 00:30:00 8.2 C 7.37 g/m*3 6.87 C 8.1 km/h
584 23-11-2020 00:35:00 8.2 C 7.37 g/m*3 6.87 C 8.1 km/h
585 23-11-2020 00:40:00 8.2 C 7.45 g/m*3 6.54 C 9.7 km/h
586 23-11-2020 00:45:00 8.2 C 7.45 g/m*3 6.54 C 9.7 km/h
587 23-11-2020 00:50:00 8.1 C 7.41 g/m*3 8.1 C 4.8 km/h
588 23-11-2020 00:55:00 8.1 C 7.41 g/m*3 6.75 C 8.1 km/h
589 23-11-2020 01:00:00 8.1 C 7.41 g/m*3 8.1 C 4.8 km/h
590 23-11-2020 01:05:00 8.1 C 7.41 g/m*3 8.1 C 3.2 km/h
591 23-11-2020 01:10:00 8.1 C 7.49 g/m*3 8.1 C 1.6 km/h
592 23-11-2020 01:15:00 8.1 C 7.49 g/m*3 8.1 C 4.8 km/h
593 23-11-2020 01:20:00 8.1 C 7.41 g/m*3 8.1 C 4.8 km/h
594 23-11-2020 01:25:00 8.1 C 7.49 g/m*3 8.1 C 3.2 km/h
595 23-11-2020 01:30:00 8.1 C 7.41 g/m*3 6.75 C 8.1 km/h
596 23-11-2020 01:35:00 8.1 C 7.41 g/m*3 8.1 C 4.8 km/h
597 23-11-2020 01:40:00 8.1 C 7.41 g/m*3 6.75 C 8.1 km/h
598 23-11-2020 01:45:00 8.1 C 7.41 g/m*3 6.42 C 9.7 km/h
599 23-11-2020 01:50:00 8.1 C 7.41 g/m*3 7.17 C 6.4 km/h
600 23-11-2020 01:55:00 8.1 C 7.41 g/m*3 7.17 C 6.4 km/h
Sensor: Nr:Datum:Temp:Abs-Feuchte:Windchill:Wind:
Aussen-T/F 601 23-11-2020 02:00:00 8.1 C 7.41 g/m*3 6.75 C 8.1 km/h
602 23-11-2020 02:05:00 8.1 C 7.41 g/m*3 6.75 C 8.1 km/h
603 23-11-2020 02:10:00 8.1 C 7.41 g/m*3 7.17 C 6.4 km/h
604 23-11-2020 02:15:00 8.1 C 7.41 g/m*3 7.17 C 6.4 km/h
605 23-11-2020 02:20:00 8.1 C 7.41 g/m*3 6.75 C 8.1 km/h
606 23-11-2020 02:25:00 8.1 C 7.41 g/m*3 8.1 C 4.8 km/h
607 23-11-2020 02:30:00 8 C 7.36 g/m*3 6.64 C 8.1 km/h
608 23-11-2020 02:35:00 8 C 7.36 g/m*3 6.64 C 8.1 km/h
609 23-11-2020 02:40:00 7.9 C 7.31 g/m*3 7.9 C 4.8 km/h
610 23-11-2020 02:45:00 7.9 C 7.31 g/m*3 6.18 C 9.7 km/h
611 23-11-2020 02:50:00 8 C 7.36 g/m*3 8 C 4.8 km/h
612 23-11-2020 02:55:00 7.9 C 7.31 g/m*3 6.94 C 6.4 km/h
613 23-11-2020 03:00:00 8 C 7.36 g/m*3 7.06 C 6.4 km/h
614 23-11-2020 03:05:00 8 C 7.36 g/m*3 7.06 C 6.4 km/h
615 23-11-2020 03:10:00 8 C 7.36 g/m*3 7.06 C 6.4 km/h
616 23-11-2020 03:15:00 8 C 7.36 g/m*3 6.3 C 9.7 km/h
617 23-11-2020 03:20:00 8 C 7.36 g/m*3 6.64 C 8.1 km/h
618 23-11-2020 03:25:00 8 C 7.36 g/m*3 6.64 C 8.1 km/h
619 23-11-2020 03:30:00 8 C 7.36 g/m*3 6.01 C 11.3 km/h
620 23-11-2020 03:35:00 8 C 7.36 g/m*3 6.64 C 8.1 km/h
621 23-11-2020 03:40:00 8 C 7.36 g/m*3 6.64 C 8.1 km/h
622 23-11-2020 03:45:00 7.9 C 7.31 g/m*3 6.52 C 8.1 km/h
623 23-11-2020 03:50:00 8 C 7.36 g/m*3 6.64 C 8.1 km/h
624 23-11-2020 03:55:00 8 C 7.36 g/m*3 8 C 4.8 km/h
625 23-11-2020 04:00:00 7.9 C 7.31 g/m*3 6.52 C 8.1 km/h
Sensor: Nr:Datum:Temp:Abs-Feuchte:Windchill:Wind:
Aussen-T/F 626 23-11-2020 04:05:00 7.9 C 7.31 g/m*3 7.9 C 4.8 km/h
627 23-11-2020 04:10:00 7.9 C 7.39 g/m*3 6.94 C 6.4 km/h
628 23-11-2020 04:15:00 7.9 C 7.39 g/m*3 6.52 C 8.1 km/h
629 23-11-2020 04:20:00 7.8 C 7.43 g/m*3 7.8 C 4.8 km/h
630 23-11-2020 04:25:00 7.8 C 7.43 g/m*3 7.8 C 4.8 km/h
631 23-11-2020 04:30:00 7.8 C 7.43 g/m*3 7.8 C 3.2 km/h
632 23-11-2020 04:35:00 7.8 C 7.43 g/m*3 6.83 C 6.4 km/h
633 23-11-2020 04:40:00 7.8 C 7.43 g/m*3 6.83 C 6.4 km/h
634 23-11-2020 04:45:00 7.8 C 7.43 g/m*3 6.83 C 6.4 km/h
635 23-11-2020 04:50:00 7.8 C 7.43 g/m*3 6.83 C 6.4 km/h
636 23-11-2020 04:55:00 7.8 C 7.43 g/m*3 6.83 C 6.4 km/h
637 23-11-2020 05:00:00 7.8 C 7.43 g/m*3 6.4 C 8.1 km/h
638 23-11-2020 05:05:00 7.8 C 7.43 g/m*3 7.8 C 1.6 km/h
639 23-11-2020 05:10:00 7.8 C 7.43 g/m*3 7.8 C 4.8 km/h
640 23-11-2020 05:15:00 7.9 C 7.47 g/m*3 7.9 C 4.8 km/h
641 23-11-2020 05:20:00 7.9 C 7.39 g/m*3 7.9 C 4.8 km/h
642 23-11-2020 05:25:00 7.8 C 7.35 g/m*3 7.8 C 1.6 km/h
643 23-11-2020 05:30:00 7.8 C 7.35 g/m*3 7.8 C 3.2 km/h
644 23-11-2020 05:35:00 7.8 C 7.35 g/m*3 7.8 C 3.2 km/h
645 23-11-2020 05:40:00 7.8 C 7.35 g/m*3 7.8 C 3.2 km/h
646 23-11-2020 05:45:00 7.8 C 7.35 g/m*3 7.8 C 1.6 km/h
647 23-11-2020 05:50:00 7.8 C 7.43 g/m*3 7.8 C 3.2 km/h
648 23-11-2020 05:55:00 7.8 C 7.43 g/m*3 6.4 C 8.1 km/h
649 23-11-2020 06:00:00 7.8 C 7.43 g/m*3 6.83 C 6.4 km/h
650 23-11-2020 06:05:00 7.8 C 7.43 g/m*3 6.83 C 6.4 km/h
Sensor: Nr:Datum:Temp:Abs-Feuchte:Windchill:Wind:
Aussen-T/F 651 23-11-2020 06:10:00 7.8 C 7.43 g/m*3 6.83 C 6.4 km/h
652 23-11-2020 06:15:00 7.8 C 7.43 g/m*3 6.83 C 6.4 km/h
653 23-11-2020 06:20:00 7.8 C 7.43 g/m*3 6.4 C 8.1 km/h
654 23-11-2020 06:25:00 7.8 C 7.43 g/m*3 6.83 C 6.4 km/h
655 23-11-2020 06:30:00 7.8 C 7.43 g/m*3 7.8 C 1.6 km/h
656 23-11-2020 06:35:00 7.8 C 7.43 g/m*3 6.83 C 6.4 km/h
657 23-11-2020 06:40:00 7.8 C 7.43 g/m*3 6.4 C 8.1 km/h
658 23-11-2020 06:45:00 7.8 C 7.43 g/m*3 6.4 C 8.1 km/h
659 23-11-2020 06:50:00 7.8 C 7.43 g/m*3 7.8 C 4.8 km/h
660 23-11-2020 06:55:00 7.7 C 7.38 g/m*3 6.71 C 6.4 km/h
661 23-11-2020 07:00:00 7.7 C 7.38 g/m*3 5.94 C 9.7 km/h
662 23-11-2020 07:05:00 7.7 C 7.38 g/m*3 5.94 C 9.7 km/h
663 23-11-2020 07:10:00 7.7 C 7.38 g/m*3 5.65 C 11.3 km/h
664 23-11-2020 07:15:00 7.7 C 7.38 g/m*3 5.94 C 9.7 km/h
665 23-11-2020 07:20:00 7.7 C 7.38 g/m*3 5.94 C 9.7 km/h
666 23-11-2020 07:25:00 7.7 C 7.38 g/m*3 6.28 C 8.1 km/h
667 23-11-2020 07:30:00 7.7 C 7.38 g/m*3 6.71 C 6.4 km/h
668 23-11-2020 07:35:00 7.7 C 7.38 g/m*3 6.28 C 8.1 km/h
669 23-11-2020 07:40:00 7.7 C 7.38 g/m*3 6.28 C 8.1 km/h
670 23-11-2020 07:45:00 7.7 C 7.38 g/m*3 6.28 C 8.1 km/h
671 23-11-2020 07:50:00 7.7 C 7.38 g/m*3 6.71 C 6.4 km/h
672 23-11-2020 07:55:00 7.6 C 7.41 g/m*3 6.6 C 6.4 km/h
673 23-11-2020 08:00:00 7.6 C 7.41 g/m*3 6.6 C 6.4 km/h
674 23-11-2020 08:05:00 7.7 C 7.46 g/m*3 6.71 C 6.4 km/h
675 23-11-2020 08:10:00 7.7 C 7.46 g/m*3 6.28 C 8.1 km/h
Sensor: Nr:Datum:Temp:Abs-Feuchte:Windchill:Wind:
Aussen-T/F 676 23-11-2020 08:15:00 7.7 C 7.46 g/m*3 6.71 C 6.4 km/h
677 23-11-2020 08:20:00 7.7 C 7.38 g/m*3 6.71 C 6.4 km/h
678 23-11-2020 08:25:00 7.8 C 7.43 g/m*3 6.4 C 8.1 km/h
679 23-11-2020 08:30:00 7.8 C 7.43 g/m*3 5.77 C 11.3 km/h
680 23-11-2020 08:35:00 7.8 C 7.43 g/m*3 6.4 C 8.1 km/h
681 23-11-2020 08:40:00 7.8 C 7.43 g/m*3 6.83 C 6.4 km/h
682 23-11-2020 08:45:00 7.8 C 7.43 g/m*3 6.83 C 6.4 km/h
683 23-11-2020 08:50:00 7.8 C 7.43 g/m*3 7.8 C 3.2 km/h
684 23-11-2020 08:55:00 7.9 C 7.56 g/m*3 7.9 C 4.8 km/h
685 23-11-2020 09:00:00 7.9 C 7.56 g/m*3 6.94 C 6.4 km/h
686 23-11-2020 09:05:00 7.8 C 7.51 g/m*3 7.8 C 4.8 km/h
687 23-11-2020 09:10:00 7.8 C 7.51 g/m*3 7.8 C 4.8 km/h
688 23-11-2020 09:15:00 7.8 C 7.59 g/m*3 6.83 C 6.4 km/h
689 23-11-2020 09:20:00 7.8 C 7.59 g/m*3 6.83 C 6.4 km/h
690 23-11-2020 09:25:00 7.8 C 7.59 g/m*3 7.8 C 4.8 km/h
691 23-11-2020 09:30:00 7.8 C 7.59 g/m*3 6.4 C 8.1 km/h
692 23-11-2020 09:35:00 7.9 C 7.64 g/m*3 6.18 C 9.7 km/h
693 23-11-2020 09:40:00 7.9 C 7.64 g/m*3 6.94 C 6.4 km/h
694 23-11-2020 09:45:00 7.9 C 7.64 g/m*3 6.94 C 6.4 km/h
695 23-11-2020 09:50:00 8 C 7.69 g/m*3 6.3 C 9.7 km/h
696 23-11-2020 09:55:00 8.1 C 7.74 g/m*3 8.1 C 4.8 km/h
697 23-11-2020 10:00:00 8.1 C 7.74 g/m*3 6.75 C 8.1 km/h
698 23-11-2020 10:05:00 8.2 C 7.79 g/m*3 7.29 C 6.4 km/h
699 23-11-2020 10:10:00 8.2 C 7.7 g/m*3 8.2 C 4.8 km/h
700 23-11-2020 10:15:00 8.3 C 7.75 g/m*3 6.99 C 8.1 km/h
Sensor: Nr:Datum:Temp:Abs-Feuchte:Windchill:Wind:
Aussen-T/F 701 23-11-2020 10:20:00 8.3 C 7.75 g/m*3 6.37 C 11.3 km/h
702 23-11-2020 10:25:00 8.3 C 7.75 g/m*3 6.99 C 8.1 km/h
703 23-11-2020 10:30:00 8.3 C 7.75 g/m*3 7.41 C 6.4 km/h
704 23-11-2020 10:35:00 8.3 C 7.75 g/m*3 8.3 C 4.8 km/h
705 23-11-2020 10:40:00 8.3 C 7.67 g/m*3 7.41 C 6.4 km/h
706 23-11-2020 10:45:00 8.3 C 7.67 g/m*3 8.3 C 1.6 km/h
707 23-11-2020 10:50:00 8.4 C 7.8 g/m*3 8.4 C 1.6 km/h
708 23-11-2020 10:55:00 8.4 C 7.72 g/m*3 8.4 C 1.6 km/h
709 23-11-2020 11:00:00 8.5 C 7.77 g/m*3 8.5 C 1.6 km/h
710 23-11-2020 11:05:00 8.6 C 7.82 g/m*3 8.6 C 4.8 km/h
711 23-11-2020 11:10:00 8.7 C 7.87 g/m*3 8.7 C 4.8 km/h
712 23-11-2020 11:15:00 8.7 C 7.87 g/m*3 7.87 C 6.4 km/h
713 23-11-2020 11:20:00 8.8 C 7.83 g/m*3 7.98 C 6.4 km/h
714 23-11-2020 11:25:00 8.8 C 7.83 g/m*3 8.8 C 4.8 km/h
715 23-11-2020 11:30:00 8.9 C 7.88 g/m*3 8.9 C 3.2 km/h
716 23-11-2020 11:35:00 9 C 7.93 g/m*3 8.21 C 6.4 km/h
717 23-11-2020 11:40:00 9.1 C 7.99 g/m*3 9.1 C 4.8 km/h
718 23-11-2020 11:45:00 9.1 C 7.9 g/m*3 8.33 C 6.4 km/h
719 23-11-2020 11:50:00 9 C 7.85 g/m*3 9 C 4.8 km/h
720 23-11-2020 11:55:00 8.9 C 7.8 g/m*3 8.9 C 3.2 km/h
721 23-11-2020 12:00:00 9 C 7.93 g/m*3 8.21 C 6.4 km/h
722 23-11-2020 12:05:00 9.1 C 7.99 g/m*3 9.1 C 3.2 km/h
723 23-11-2020 12:10:00 9.1 C 7.99 g/m*3 9.1 C 3.2 km/h
724 23-11-2020 12:15:00 9.2 C 7.95 g/m*3 9.2 C 3.2 km/h
725 23-11-2020 12:20:00 9.2 C 7.95 g/m*3 9.2 C 3.2 km/h
Sensor: Nr:Datum:Temp:Abs-Feuchte:Windchill:Wind:
Aussen-T/F 726 23-11-2020 12:25:00 9.3 C 8 g/m*3 9.3 C 3.2 km/h
727 23-11-2020 12:30:00 9.3 C 8 g/m*3 9.3 C 4.8 km/h
728 23-11-2020 12:35:00 9.3 C 7.91 g/m*3 8.56 C 6.4 km/h
729 23-11-2020 12:40:00 9.3 C 7.91 g/m*3 8.56 C 6.4 km/h
730 23-11-2020 12:45:00 9.3 C 7.91 g/m*3 9.3 C 3.2 km/h
731 23-11-2020 12:50:00 9.2 C 7.86 g/m*3 9.2 C 0 km/h
732 23-11-2020 12:55:00 9.2 C 7.86 g/m*3 9.2 C 1.6 km/h
733 23-11-2020 13:00:00 9.2 C 7.86 g/m*3 9.2 C 0 km/h
734 23-11-2020 13:05:00 9.2 C 7.86 g/m*3 9.2 C 0 km/h
735 23-11-2020 13:10:00 9.2 C 7.86 g/m*3 9.2 C 0 km/h
736 23-11-2020 13:15:00 9.2 C 7.95 g/m*3 9.2 C 0 km/h
737 23-11-2020 13:20:00 9.3 C 8 g/m*3 9.3 C 0 km/h
738 23-11-2020 13:25:00 9.4 C 8.05 g/m*3 9.4 C 3.2 km/h
739 23-11-2020 13:30:00 9.5 C 8.01 g/m*3 9.5 C 1.6 km/h
740 23-11-2020 13:35:00 9.6 C 7.97 g/m*3 9.6 C 3.2 km/h
741 23-11-2020 13:40:00 9.7 C 8.02 g/m*3 9.7 C 1.6 km/h
742 23-11-2020 13:45:00 9.7 C 8.02 g/m*3 9.7 C 1.6 km/h
743 23-11-2020 13:50:00 9.8 C 7.98 g/m*3 9.8 C 4.8 km/h
744 23-11-2020 13:55:00 9.8 C 7.98 g/m*3 9.8 C 1.6 km/h
745 23-11-2020 14:00:00 9.8 C 7.98 g/m*3 9.8 C 4.8 km/h
746 23-11-2020 14:05:00 9.8 C 7.98 g/m*3 9.8 C 4.8 km/h
747 23-11-2020 14:10:00 9.8 C 7.98 g/m*3 9.8 C 4.8 km/h
748 23-11-2020 14:15:00 9.8 C 7.98 g/m*3 9.8 C 1.6 km/h
749 23-11-2020 14:20:00 9.8 C 7.98 g/m*3 9.8 C 4.8 km/h
750 23-11-2020 14:25:00 9.8 C 7.98 g/m*3 9.14 C 6.4 km/h
Sensor: Nr:Datum:Temp:Abs-Feuchte:Windchill:Wind:
Aussen-T/F 751 23-11-2020 14:30:00 9.7 C 7.93 g/m*3 9.7 C 3.2 km/h
752 23-11-2020 14:35:00 9.7 C 7.93 g/m*3 9.7 C 4.8 km/h
753 23-11-2020 14:40:00 9.7 C 7.93 g/m*3 9.7 C 3.2 km/h
754 23-11-2020 14:45:00 9.7 C 7.93 g/m*3 9.7 C 3.2 km/h
755 23-11-2020 14:50:00 9.7 C 7.93 g/m*3 9.7 C 1.6 km/h
756 23-11-2020 14:55:00 9.8 C 7.98 g/m*3 9.8 C 3.2 km/h
757 23-11-2020 15:00:00 9.8 C 7.98 g/m*3 9.8 C 0 km/h
758 23-11-2020 15:05:00 9.8 C 7.98 g/m*3 9.8 C 3.2 km/h
759 23-11-2020 15:10:00 9.8 C 7.98 g/m*3 9.8 C 0 km/h
760 23-11-2020 15:15:00 9.8 C 7.98 g/m*3 9.8 C 0 km/h
761 23-11-2020 15:20:00 9.7 C 7.93 g/m*3 9.7 C 0 km/h
762 23-11-2020 15:25:00 9.8 C 7.98 g/m*3 9.8 C 0 km/h
763 23-11-2020 15:30:00 9.8 C 7.98 g/m*3 9.8 C 0 km/h
764 23-11-2020 15:35:00 9.8 C 7.98 g/m*3 9.8 C 0 km/h
765 23-11-2020 15:40:00 9.8 C 7.98 g/m*3 9.8 C 0 km/h
766 23-11-2020 15:45:00 9.7 C 7.93 g/m*3 9.7 C 0 km/h
767 23-11-2020 15:50:00 9.7 C 7.93 g/m*3 9.7 C 0 km/h
768 23-11-2020 15:55:00 9.7 C 7.93 g/m*3 9.7 C 0 km/h
769 23-11-2020 16:00:00 9.6 C 7.88 g/m*3 9.6 C 0 km/h
770 23-11-2020 16:05:00 9.6 C 7.88 g/m*3 9.6 C 0 km/h
771 23-11-2020 16:10:00 9.5 C 7.92 g/m*3 9.5 C 0 km/h
772 23-11-2020 16:15:00 9.4 C 7.87 g/m*3 9.4 C 0 km/h
773 23-11-2020 16:20:00 9.3 C 7.82 g/m*3 9.3 C 0 km/h
774 23-11-2020 16:25:00 9.2 C 7.77 g/m*3 9.2 C 0 km/h
775 23-11-2020 16:30:00 9.2 C 7.77 g/m*3 9.2 C 1.6 km/h
Sensor: Nr:Datum:Temp:Abs-Feuchte:Windchill:Wind:
Aussen-T/F 776 23-11-2020 16:35:00 9.1 C 7.81 g/m*3 9.1 C 0 km/h
777 23-11-2020 16:40:00 9.1 C 7.81 g/m*3 9.1 C 0 km/h
778 23-11-2020 16:45:00 9 C 7.76 g/m*3 9 C 0 km/h
779 23-11-2020 16:50:00 8.9 C 7.71 g/m*3 8.9 C 0 km/h
780 23-11-2020 16:55:00 8.9 C 7.8 g/m*3 8.9 C 0 km/h
781 23-11-2020 17:00:00 8.8 C 7.66 g/m*3 8.8 C 0 km/h
782 23-11-2020 17:05:00 8.6 C 7.56 g/m*3 8.6 C 3.2 km/h
783 23-11-2020 17:10:00 8.3 C 7.33 g/m*3 8.3 C 3.2 km/h
784 23-11-2020 17:15:00 7.9 C 7.23 g/m*3 7.9 C 4.8 km/h
785 23-11-2020 17:20:00 7.7 C 7.14 g/m*3 7.7 C 4.8 km/h
786 23-11-2020 17:25:00 7.5 C 7.04 g/m*3 7.5 C 3.2 km/h
787 23-11-2020 17:30:00 7.2 C 6.99 g/m*3 7.2 C 4.8 km/h
788 23-11-2020 17:35:00 7.1 C 7.02 g/m*3 7.1 C 1.6 km/h
789 23-11-2020 17:40:00 6.9 C 6.93 g/m*3 6.9 C 3.2 km/h
790 23-11-2020 17:45:00 6.8 C 6.88 g/m*3 6.8 C 0 km/h
791 23-11-2020 17:50:00 6.6 C 6.87 g/m*3 6.6 C 1.6 km/h
792 23-11-2020 17:55:00 6.4 C 6.78 g/m*3 6.4 C 1.6 km/h
793 23-11-2020 18:00:00 6.3 C 6.74 g/m*3 6.3 C 0 km/h
794 23-11-2020 18:05:00 6.1 C 6.65 g/m*3 6.1 C 0 km/h
795 23-11-2020 18:10:00 5.9 C 6.56 g/m*3 5.9 C 1.6 km/h
796 23-11-2020 18:15:00 5.8 C 6.59 g/m*3 5.8 C 0 km/h
797 23-11-2020 18:20:00 5.7 C 6.55 g/m*3 5.7 C 0 km/h
798 23-11-2020 18:25:00 5.5 C 6.46 g/m*3 5.5 C 0 km/h
799 23-11-2020 18:30:00 5.3 C 6.38 g/m*3 5.3 C 0 km/h
800 23-11-2020 18:35:00 5.2 C 6.33 g/m*3 5.2 C 0 km/h
Sensor: Nr:Datum:Temp:Abs-Feuchte:Windchill:Wind:
Aussen-T/F 801 23-11-2020 18:40:00 5.1 C 6.36 g/m*3 5.1 C 0 km/h
802 23-11-2020 18:45:00 4.9 C 6.28 g/m*3 4.9 C 0 km/h
803 23-11-2020 18:50:00 4.8 C 6.24 g/m*3 4.8 C 0 km/h
804 23-11-2020 18:55:00 4.8 C 6.24 g/m*3 4.8 C 0 km/h
805 23-11-2020 19:00:00 4.9 C 6.35 g/m*3 4.9 C 3.2 km/h
806 23-11-2020 19:05:00 5 C 6.39 g/m*3 5 C 0 km/h
807 23-11-2020 19:10:00 5 C 6.39 g/m*3 5 C 1.6 km/h
808 23-11-2020 19:15:00 5 C 6.39 g/m*3 5 C 0 km/h
809 23-11-2020 19:20:00 4.9 C 6.35 g/m*3 4.9 C 0 km/h
810 23-11-2020 19:25:00 4.8 C 6.3 g/m*3 4.8 C 0 km/h
811 23-11-2020 19:30:00 4.7 C 6.26 g/m*3 4.7 C 0 km/h
812 23-11-2020 19:35:00 4.7 C 6.26 g/m*3 4.7 C 0 km/h
813 23-11-2020 19:40:00 4.6 C 6.22 g/m*3 4.6 C 1.6 km/h
814 23-11-2020 19:45:00 4.5 C 6.18 g/m*3 4.5 C 0 km/h
815 23-11-2020 19:50:00 4.4 C 6.14 g/m*3 4.4 C 0 km/h
816 23-11-2020 19:55:00 4.3 C 6.1 g/m*3 4.3 C 0 km/h
817 23-11-2020 20:00:00 4.2 C 6.06 g/m*3 4.2 C 0 km/h
818 23-11-2020 20:05:00 4.2 C 6.06 g/m*3 4.2 C 0 km/h
819 23-11-2020 20:10:00 4.2 C 6.12 g/m*3 4.2 C 0 km/h
820 23-11-2020 20:15:00 4.3 C 6.16 g/m*3 4.3 C 0 km/h
821 23-11-2020 20:20:00 4.4 C 6.2 g/m*3 4.4 C 0 km/h
822 23-11-2020 20:25:00 4.6 C 6.29 g/m*3 4.6 C 0 km/h
823 23-11-2020 20:30:00 4.8 C 6.44 g/m*3 4.8 C 0 km/h
824 23-11-2020 20:35:00 4.9 C 6.48 g/m*3 4.9 C 0 km/h
825 23-11-2020 20:40:00 5.1 C 6.57 g/m*3 5.1 C 0 km/h
Sensor: Nr:Datum:Temp:Abs-Feuchte:Windchill:Wind:
Aussen-T/F 826 23-11-2020 20:45:00 5.1 C 6.57 g/m*3 5.1 C 0 km/h
827 23-11-2020 20:50:00 5.2 C 6.61 g/m*3 5.2 C 0 km/h
828 23-11-2020 20:55:00 5.3 C 6.65 g/m*3 5.3 C 0 km/h
829 23-11-2020 21:00:00 5.4 C 6.7 g/m*3 5.4 C 0 km/h
830 23-11-2020 21:05:00 5.6 C 6.79 g/m*3 5.6 C 0 km/h
831 23-11-2020 21:10:00 5.7 C 6.83 g/m*3 5.7 C 0 km/h
832 23-11-2020 21:15:00 5.8 C 6.88 g/m*3 5.8 C 0 km/h
833 23-11-2020 21:20:00 6 C 6.97 g/m*3 6 C 0 km/h
834 23-11-2020 21:25:00 6.2 C 7.06 g/m*3 6.2 C 0 km/h
835 23-11-2020 21:30:00 6.3 C 7.11 g/m*3 6.3 C 1.6 km/h
836 23-11-2020 21:35:00 6.3 C 7.11 g/m*3 6.3 C 3.2 km/h
837 23-11-2020 21:40:00 6.4 C 7.15 g/m*3 6.4 C 0 km/h
838 23-11-2020 21:45:00 6.4 C 7.15 g/m*3 6.4 C 0 km/h
839 23-11-2020 21:50:00 6.4 C 7.15 g/m*3 6.4 C 0 km/h
840 23-11-2020 21:55:00 6.4 C 7.15 g/m*3 6.4 C 0 km/h
841 23-11-2020 22:00:00 6.5 C 7.2 g/m*3 6.5 C 0 km/h
842 23-11-2020 22:05:00 6.6 C 7.25 g/m*3 6.6 C 1.6 km/h
843 23-11-2020 22:10:00 6.7 C 7.29 g/m*3 6.7 C 1.6 km/h
844 23-11-2020 22:15:00 6.8 C 7.34 g/m*3 6.8 C 0 km/h
845 23-11-2020 22:20:00 6.8 C 7.34 g/m*3 6.8 C 0 km/h
846 23-11-2020 22:25:00 6.8 C 7.34 g/m*3 6.8 C 0 km/h
847 23-11-2020 22:30:00 6.8 C 7.34 g/m*3 6.8 C 0 km/h
848 23-11-2020 22:35:00 6.8 C 7.34 g/m*3 6.8 C 4.8 km/h
849 23-11-2020 22:40:00 6.9 C 7.39 g/m*3 6.9 C 1.6 km/h
850 23-11-2020 22:45:00 6.8 C 7.34 g/m*3 6.8 C 0 km/h
Sensor: Nr:Datum:Temp:Abs-Feuchte:Windchill:Wind:
Aussen-T/F 851 23-11-2020 22:50:00 6.8 C 7.34 g/m*3 6.8 C 0 km/h
852 23-11-2020 22:55:00 6.8 C 7.34 g/m*3 6.8 C 0 km/h
853 23-11-2020 23:00:00 6.8 C 7.34 g/m*3 6.8 C 0 km/h
854 23-11-2020 23:05:00 6.9 C 7.39 g/m*3 6.9 C 0 km/h
855 23-11-2020 23:10:00 6.9 C 7.39 g/m*3 6.9 C 0 km/h
856 23-11-2020 23:15:00 6.9 C 7.39 g/m*3 6.9 C 0 km/h
857 23-11-2020 23:20:00 7 C 7.44 g/m*3 7 C 0 km/h
858 23-11-2020 23:25:00 7 C 7.44 g/m*3 7 C 0 km/h
859 23-11-2020 23:30:00 7 C 7.44 g/m*3 7 C 0 km/h
860 23-11-2020 23:35:00 7 C 7.44 g/m*3 7 C 0 km/h
861 23-11-2020 23:40:00 7 C 7.44 g/m*3 7 C 0 km/h
862 23-11-2020 23:45:00 7 C 7.44 g/m*3 7 C 0 km/h
863 23-11-2020 23:50:00 7 C 7.44 g/m*3 7 C 0 km/h
864 23-11-2020 23:55:00 7 C 7.44 g/m*3 7 C 0 km/h
865 24-11-2020 00:00:00 6.9 C 7.39 g/m*3 6.9 C 0 km/h
866 24-11-2020 00:05:00 6.9 C 7.39 g/m*3 6.9 C 0 km/h
867 24-11-2020 00:10:00 7 C 7.36 g/m*3 7 C 1.6 km/h
868 24-11-2020 00:15:00 7 C 7.36 g/m*3 7 C 4.8 km/h
869 24-11-2020 00:20:00 7 C 7.36 g/m*3 7 C 3.2 km/h
870 24-11-2020 00:25:00 7 C 7.36 g/m*3 7 C 1.6 km/h
871 24-11-2020 00:30:00 7 C 7.36 g/m*3 7 C 0 km/h
872 24-11-2020 00:35:00 7 C 7.36 g/m*3 7 C 0 km/h
873 24-11-2020 00:40:00 6.9 C 7.31 g/m*3 6.9 C 0 km/h
874 24-11-2020 00:45:00 6.9 C 7.24 g/m*3 6.9 C 0 km/h
875 24-11-2020 00:50:00 6.8 C 7.19 g/m*3 6.8 C 4.8 km/h
Sensor: Nr:Datum:Temp:Abs-Feuchte:Windchill:Wind:
Aussen-T/F 876 24-11-2020 00:55:00 6.8 C 7.19 g/m*3 6.8 C 0 km/h
877 24-11-2020 01:00:00 6.8 C 7.19 g/m*3 6.8 C 0 km/h
878 24-11-2020 01:05:00 6.7 C 7.14 g/m*3 6.7 C 0 km/h
879 24-11-2020 01:10:00 6.7 C 7.14 g/m*3 6.7 C 0 km/h
880 24-11-2020 01:15:00 6.7 C 7.14 g/m*3 6.7 C 0 km/h
881 24-11-2020 01:20:00 6.7 C 7.14 g/m*3 6.7 C 1.6 km/h
882 24-11-2020 01:25:00 6.6 C 7.1 g/m*3 6.6 C 1.6 km/h
883 24-11-2020 01:30:00 6.6 C 7.1 g/m*3 6.6 C 0 km/h
884 24-11-2020 01:35:00 6.6 C 7.1 g/m*3 6.6 C 0 km/h
885 24-11-2020 01:40:00 6.6 C 7.1 g/m*3 6.6 C 0 km/h
886 24-11-2020 01:45:00 6.6 C 7.1 g/m*3 6.6 C 0 km/h
887 24-11-2020 01:50:00 6.6 C 7.1 g/m*3 6.6 C 0 km/h
888 24-11-2020 01:55:00 6.6 C 7.1 g/m*3 6.6 C 1.6 km/h
889 24-11-2020 02:00:00 6.6 C 7.1 g/m*3 6.6 C 1.6 km/h
890 24-11-2020 02:05:00 6.6 C 7.1 g/m*3 6.6 C 1.6 km/h
891 24-11-2020 02:10:00 6.5 C 7.05 g/m*3 6.5 C 3.2 km/h
892 24-11-2020 02:15:00 6.5 C 7.05 g/m*3 6.5 C 0 km/h
893 24-11-2020 02:20:00 6.5 C 7.05 g/m*3 6.5 C 1.6 km/h
894 24-11-2020 02:25:00 6.4 C 6.93 g/m*3 6.4 C 3.2 km/h
895 24-11-2020 02:30:00 6.4 C 6.93 g/m*3 6.4 C 4.8 km/h
896 24-11-2020 02:35:00 6.4 C 6.93 g/m*3 4.75 C 8.1 km/h
897 24-11-2020 02:40:00 6.4 C 6.93 g/m*3 6.4 C 1.6 km/h
898 24-11-2020 02:45:00 6.4 C 6.93 g/m*3 6.4 C 1.6 km/h
899 24-11-2020 02:50:00 6.3 C 6.88 g/m*3 6.3 C 1.6 km/h
900 24-11-2020 02:55:00 6.4 C 6.93 g/m*3 6.4 C 0 km/h
Sensor: Nr:Datum:Temp:Abs-Feuchte:Windchill:Wind:
Aussen-T/F 901 24-11-2020 03:00:00 6.4 C 6.93 g/m*3 6.4 C 0 km/h
902 24-11-2020 03:05:00 6.4 C 6.93 g/m*3 6.4 C 0 km/h
903 24-11-2020 03:10:00 6.3 C 6.88 g/m*3 6.3 C 0 km/h
904 24-11-2020 03:15:00 6.3 C 6.88 g/m*3 6.3 C 0 km/h
905 24-11-2020 03:20:00 6.3 C 6.88 g/m*3 6.3 C 0 km/h
906 24-11-2020 03:25:00 6.3 C 6.88 g/m*3 6.3 C 0 km/h
907 24-11-2020 03:30:00 6.3 C 6.88 g/m*3 6.3 C 1.6 km/h
908 24-11-2020 03:35:00 6.3 C 6.88 g/m*3 6.3 C 1.6 km/h
909 24-11-2020 03:40:00 6.3 C 6.88 g/m*3 6.3 C 3.2 km/h
910 24-11-2020 03:45:00 6.3 C 6.88 g/m*3 6.3 C 0 km/h
911 24-11-2020 03:50:00 6.2 C 6.84 g/m*3 4.98 C 6.4 km/h
912 24-11-2020 03:55:00 6.2 C 6.84 g/m*3 6.2 C 4.8 km/h
913 24-11-2020 04:00:00 6.2 C 6.84 g/m*3 6.2 C 0 km/h
914 24-11-2020 04:05:00 6.1 C 6.79 g/m*3 6.1 C 4.8 km/h
915 24-11-2020 04:10:00 6.1 C 6.79 g/m*3 6.1 C 0 km/h
916 24-11-2020 04:15:00 6.1 C 6.79 g/m*3 6.1 C 1.6 km/h
917 24-11-2020 04:20:00 6.1 C 6.79 g/m*3 6.1 C 0 km/h
918 24-11-2020 04:25:00 6.1 C 6.79 g/m*3 6.1 C 0 km/h
919 24-11-2020 04:30:00 6 C 6.82 g/m*3 6 C 0 km/h
920 24-11-2020 04:35:00 6 C 6.82 g/m*3 6 C 4.8 km/h
921 24-11-2020 04:40:00 6 C 6.82 g/m*3 6 C 1.6 km/h
922 24-11-2020 04:45:00 6 C 6.82 g/m*3 6 C 4.8 km/h
923 24-11-2020 04:50:00 6 C 6.82 g/m*3 6 C 1.6 km/h
924 24-11-2020 04:55:00 5.9 C 6.78 g/m*3 5.9 C 1.6 km/h
925 24-11-2020 05:00:00 5.9 C 6.78 g/m*3 5.9 C 1.6 km/h
Sensor: Nr:Datum:Temp:Abs-Feuchte:Windchill:Wind:
Aussen-T/F 926 24-11-2020 05:05:00 5.9 C 6.78 g/m*3 5.9 C 1.6 km/h
927 24-11-2020 05:10:00 5.9 C 6.78 g/m*3 5.9 C 0 km/h
928 24-11-2020 05:15:00 5.9 C 6.78 g/m*3 5.9 C 0 km/h
929 24-11-2020 05:20:00 5.9 C 6.78 g/m*3 5.9 C 3.2 km/h
930 24-11-2020 05:25:00 5.8 C 6.73 g/m*3 5.8 C 0 km/h
931 24-11-2020 05:30:00 5.9 C 6.78 g/m*3 5.9 C 0 km/h
932 24-11-2020 05:35:00 5.8 C 6.73 g/m*3 5.8 C 0 km/h
933 24-11-2020 05:40:00 5.9 C 6.78 g/m*3 5.9 C 0 km/h
934 24-11-2020 05:45:00 5.9 C 6.78 g/m*3 5.9 C 0 km/h
935 24-11-2020 05:50:00 5.8 C 6.73 g/m*3 5.8 C 1.6 km/h
936 24-11-2020 05:55:00 5.8 C 6.73 g/m*3 5.8 C 0 km/h
937 24-11-2020 06:00:00 5.8 C 6.73 g/m*3 5.8 C 1.6 km/h
938 24-11-2020 06:05:00 5.8 C 6.73 g/m*3 5.8 C 1.6 km/h
939 24-11-2020 06:10:00 5.8 C 6.73 g/m*3 5.8 C 0 km/h
940 24-11-2020 06:15:00 5.8 C 6.73 g/m*3 5.8 C 1.6 km/h
941 24-11-2020 06:20:00 5.7 C 6.69 g/m*3 5.7 C 0 km/h
942 24-11-2020 06:25:00 5.7 C 6.69 g/m*3 5.7 C 0 km/h
943 24-11-2020 06:30:00 5.7 C 6.69 g/m*3 5.7 C 0 km/h
944 24-11-2020 06:35:00 5.8 C 6.73 g/m*3 5.8 C 0 km/h
945 24-11-2020 06:40:00 5.8 C 6.73 g/m*3 5.8 C 0 km/h
946 24-11-2020 06:45:00 5.8 C 6.73 g/m*3 5.8 C 0 km/h
947 24-11-2020 06:50:00 5.8 C 6.73 g/m*3 5.8 C 0 km/h
948 24-11-2020 06:55:00 5.8 C 6.73 g/m*3 5.8 C 0 km/h
949 24-11-2020 07:00:00 5.8 C 6.73 g/m*3 5.8 C 0 km/h
950 24-11-2020 07:05:00 5.9 C 6.78 g/m*3 5.9 C 1.6 km/h
Sensor: Nr:Datum:Temp:Abs-Feuchte:Windchill:Wind:
Aussen-T/F 951 24-11-2020 07:10:00 5.8 C 6.73 g/m*3 4.52 C 6.4 km/h
952 24-11-2020 07:15:00 5.7 C 6.69 g/m*3 4.4 C 6.4 km/h
953 24-11-2020 07:20:00 5.7 C 6.69 g/m*3 4.4 C 6.4 km/h
954 24-11-2020 07:25:00 5.6 C 6.65 g/m*3 5.6 C 4.8 km/h
955 24-11-2020 07:30:00 5.6 C 6.65 g/m*3 5.6 C 1.6 km/h
956 24-11-2020 07:35:00 5.5 C 6.6 g/m*3 4.17 C 6.4 km/h
957 24-11-2020 07:40:00 5.4 C 6.56 g/m*3 5.4 C 4.8 km/h
958 24-11-2020 07:45:00 5.4 C 6.56 g/m*3 5.4 C 1.6 km/h
959 24-11-2020 07:50:00 5.4 C 6.56 g/m*3 5.4 C 3.2 km/h
960 24-11-2020 07:55:00 5.4 C 6.56 g/m*3 5.4 C 3.2 km/h
961 24-11-2020 08:00:00 5.4 C 6.56 g/m*3 5.4 C 0 km/h
962 24-11-2020 08:05:00 5.4 C 6.56 g/m*3 5.4 C 3.2 km/h
963 24-11-2020 08:10:00 5.4 C 6.56 g/m*3 5.4 C 0 km/h
964 24-11-2020 08:15:00 5.4 C 6.56 g/m*3 5.4 C 3.2 km/h
965 24-11-2020 08:20:00 5.4 C 6.56 g/m*3 5.4 C 4.8 km/h
966 24-11-2020 08:25:00 5.3 C 6.52 g/m*3 5.3 C 4.8 km/h
967 24-11-2020 08:30:00 5.3 C 6.52 g/m*3 5.3 C 3.2 km/h
968 24-11-2020 08:35:00 5.3 C 6.52 g/m*3 5.3 C 4.8 km/h
969 24-11-2020 08:40:00 5.2 C 6.47 g/m*3 3.82 C 6.4 km/h
970 24-11-2020 08:45:00 5.2 C 6.47 g/m*3 5.2 C 4.8 km/h
971 24-11-2020 08:50:00 5.2 C 6.47 g/m*3 5.2 C 3.2 km/h
972 24-11-2020 08:55:00 5.2 C 6.47 g/m*3 5.2 C 3.2 km/h
973 24-11-2020 09:00:00 5.1 C 6.43 g/m*3 5.1 C 4.8 km/h
974 24-11-2020 09:05:00 5.1 C 6.43 g/m*3 3.71 C 6.4 km/h
975 24-11-2020 09:10:00 5.1 C 6.43 g/m*3 5.1 C 0 km/h
Sensor: Nr:Datum:Temp:Abs-Feuchte:Windchill:Wind:
Aussen-T/F 976 24-11-2020 09:15:00 5.2 C 6.47 g/m*3 5.2 C 1.6 km/h
977 24-11-2020 09:20:00 5.2 C 6.47 g/m*3 5.2 C 3.2 km/h
978 24-11-2020 09:25:00 5.2 C 6.47 g/m*3 5.2 C 4.8 km/h
979 24-11-2020 09:30:00 5.2 C 6.47 g/m*3 5.2 C 4.8 km/h
980 24-11-2020 09:35:00 5.3 C 6.52 g/m*3 5.3 C 3.2 km/h
981 24-11-2020 09:40:00 5.3 C 6.52 g/m*3 5.3 C 3.2 km/h
982 24-11-2020 09:45:00 5.3 C 6.52 g/m*3 5.3 C 0 km/h
983 24-11-2020 09:50:00 5.4 C 6.56 g/m*3 5.4 C 0 km/h
984 24-11-2020 09:55:00 5.5 C 6.6 g/m*3 5.5 C 0 km/h
985 24-11-2020 10:00:00 5.6 C 6.65 g/m*3 5.6 C 0 km/h
986 24-11-2020 10:05:00 5.6 C 6.65 g/m*3 5.6 C 1.6 km/h
987 24-11-2020 10:10:00 5.7 C 6.69 g/m*3 5.7 C 0 km/h
988 24-11-2020 10:15:00 5.8 C 6.73 g/m*3 5.8 C 0 km/h
989 24-11-2020 10:20:00 5.9 C 6.78 g/m*3 5.9 C 1.6 km/h
990 24-11-2020 10:25:00 6 C 6.82 g/m*3 6 C 0 km/h
991 24-11-2020 10:30:00 6.1 C 6.79 g/m*3 6.1 C 1.6 km/h
992 24-11-2020 10:35:00 6.1 C 6.79 g/m*3 6.1 C 0 km/h
993 24-11-2020 10:40:00 6.2 C 6.84 g/m*3 6.2 C 0 km/h
994 24-11-2020 10:45:00 6.2 C 6.84 g/m*3 6.2 C 1.6 km/h
995 24-11-2020 10:50:00 6.3 C 6.88 g/m*3 6.3 C 3.2 km/h
996 24-11-2020 10:55:00 6.4 C 6.93 g/m*3 6.4 C 3.2 km/h
997 24-11-2020 11:00:00 6.4 C 6.93 g/m*3 6.4 C 1.6 km/h
998 24-11-2020 11:05:00 6.5 C 6.9 g/m*3 6.5 C 0 km/h
999 24-11-2020 11:10:00 6.6 C 6.95 g/m*3 6.6 C 1.6 km/h
1000 24-11-2020 11:15:00 6.6 C 6.95 g/m*3 6.6 C 0 km/h
Sensor: Nr:Datum:Temp:Abs-Feuchte:Windchill:Wind:
Aussen-T/F 1001 24-11-2020 11:20:00 6.6 C 6.95 g/m*3 6.6 C 1.6 km/h
1002 24-11-2020 11:25:00 6.6 C 6.87 g/m*3 6.6 C 3.2 km/h
1003 24-11-2020 11:30:00 6.7 C 6.91 g/m*3 6.7 C 4.8 km/h
1004 24-11-2020 11:35:00 6.7 C 6.91 g/m*3 6.7 C 3.2 km/h
1005 24-11-2020 11:40:00 6.8 C 6.96 g/m*3 6.8 C 1.6 km/h
1006 24-11-2020 11:45:00 6.8 C 6.96 g/m*3 6.8 C 3.2 km/h
1007 24-11-2020 11:50:00 6.9 C 6.93 g/m*3 6.9 C 3.2 km/h
1008 24-11-2020 11:55:00 6.9 C 6.93 g/m*3 5.34 C 8.1 km/h
1009 24-11-2020 12:00:00 7 C 6.97 g/m*3 7 C 4.8 km/h
1010 24-11-2020 12:05:00 7 C 6.97 g/m*3 7 C 1.6 km/h
1011 24-11-2020 12:10:00 7.1 C 7.02 g/m*3 7.1 C 3.2 km/h
1012 24-11-2020 12:15:00 7.2 C 6.99 g/m*3 7.2 C 4.8 km/h
1013 24-11-2020 12:20:00 7.2 C 6.99 g/m*3 7.2 C 3.2 km/h
1014 24-11-2020 12:25:00 7.2 C 6.99 g/m*3 7.2 C 0 km/h
1015 24-11-2020 12:30:00 7.2 C 6.99 g/m*3 7.2 C 3.2 km/h
1016 24-11-2020 12:35:00 7.2 C 6.99 g/m*3 7.2 C 0 km/h
1017 24-11-2020 12:40:00 7.3 C 7.03 g/m*3 7.3 C 4.8 km/h
1018 24-11-2020 12:45:00 7.3 C 6.95 g/m*3 7.3 C 4.8 km/h
1019 24-11-2020 12:50:00 7.3 C 6.95 g/m*3 7.3 C 3.2 km/h
1020 24-11-2020 12:55:00 7.3 C 6.95 g/m*3 7.3 C 1.6 km/h
1021 24-11-2020 13:00:00 7.3 C 6.95 g/m*3 5.81 C 8.1 km/h
1022 24-11-2020 13:05:00 7.3 C 6.95 g/m*3 7.3 C 4.8 km/h
1023 24-11-2020 13:10:00 7.3 C 6.95 g/m*3 6.25 C 6.4 km/h
1024 24-11-2020 13:15:00 7.3 C 6.95 g/m*3 6.25 C 6.4 km/h
1025 24-11-2020 13:20:00 7.2 C 6.91 g/m*3 5.69 C 8.1 km/h
Sensor: Nr:Datum:Temp:Abs-Feuchte:Windchill:Wind:
Aussen-T/F 1026 24-11-2020 13:25:00 7.3 C 7.03 g/m*3 7.3 C 1.6 km/h
1027 24-11-2020 13:30:00 7.3 C 7.03 g/m*3 7.3 C 4.8 km/h
1028 24-11-2020 13:35:00 7.3 C 6.95 g/m*3 7.3 C 3.2 km/h
1029 24-11-2020 13:40:00 7.3 C 7.03 g/m*3 7.3 C 1.6 km/h
1030 24-11-2020 13:45:00 7.3 C 7.03 g/m*3 7.3 C 1.6 km/h
1031 24-11-2020 13:50:00 7.2 C 6.99 g/m*3 6.13 C 6.4 km/h
1032 24-11-2020 13:55:00 7.2 C 6.91 g/m*3 7.2 C 4.8 km/h
1033 24-11-2020 14:00:00 7.2 C 6.91 g/m*3 7.2 C 4.8 km/h
1034 24-11-2020 14:05:00 7.2 C 6.99 g/m*3 7.2 C 0 km/h
1035 24-11-2020 14:10:00 7.1 C 6.94 g/m*3 7.1 C 3.2 km/h
1036 24-11-2020 14:15:00 7.1 C 6.94 g/m*3 7.1 C 3.2 km/h
1037 24-11-2020 14:20:00 7.1 C 6.94 g/m*3 7.1 C 1.6 km/h
1038 24-11-2020 14:25:00 7 C 6.9 g/m*3 7 C 4.8 km/h
1039 24-11-2020 14:30:00 6.9 C 6.85 g/m*3 6.9 C 4.8 km/h
1040 24-11-2020 14:35:00 6.8 C 6.81 g/m*3 6.8 C 4.8 km/h
1041 24-11-2020 14:40:00 6.8 C 6.81 g/m*3 5.67 C 6.4 km/h
1042 24-11-2020 14:45:00 6.7 C 6.76 g/m*3 4.75 C 9.7 km/h
1043 24-11-2020 14:50:00 6.7 C 6.76 g/m*3 6.7 C 4.8 km/h
1044 24-11-2020 14:55:00 6.6 C 6.72 g/m*3 6.6 C 3.2 km/h
1045 24-11-2020 15:00:00 6.6 C 6.72 g/m*3 4.99 C 8.1 km/h
1046 24-11-2020 15:05:00 6.6 C 6.72 g/m*3 6.6 C 3.2 km/h
1047 24-11-2020 15:10:00 6.6 C 6.79 g/m*3 6.6 C 3.2 km/h
1048 24-11-2020 15:15:00 6.6 C 6.79 g/m*3 6.6 C 4.8 km/h
1049 24-11-2020 15:20:00 6.6 C 6.79 g/m*3 6.6 C 4.8 km/h
1050 24-11-2020 15:25:00 6.6 C 6.79 g/m*3 6.6 C 3.2 km/h
Sensor: Nr:Datum:Temp:Abs-Feuchte:Windchill:Wind:
Aussen-T/F 1051 24-11-2020 15:30:00 6.6 C 6.79 g/m*3 6.6 C 3.2 km/h
1052 24-11-2020 15:35:00 6.5 C 6.75 g/m*3 5.33 C 6.4 km/h
1053 24-11-2020 15:40:00 6.4 C 6.71 g/m*3 6.4 C 4.8 km/h
1054 24-11-2020 15:45:00 6.4 C 6.71 g/m*3 6.4 C 1.6 km/h
1055 24-11-2020 15:50:00 6.4 C 6.71 g/m*3 6.4 C 0 km/h
1056 24-11-2020 15:55:00 6.4 C 6.71 g/m*3 6.4 C 4.8 km/h
1057 24-11-2020 16:00:00 6.4 C 6.71 g/m*3 6.4 C 0 km/h
1058 24-11-2020 16:05:00 6.4 C 6.71 g/m*3 6.4 C 3.2 km/h
1059 24-11-2020 16:10:00 6.4 C 6.71 g/m*3 6.4 C 0 km/h
1060 24-11-2020 16:15:00 6.4 C 6.71 g/m*3 6.4 C 0 km/h
1061 24-11-2020 16:20:00 6.5 C 6.75 g/m*3 6.5 C 1.6 km/h
1062 24-11-2020 16:25:00 6.5 C 6.75 g/m*3 6.5 C 1.6 km/h
1063 24-11-2020 16:30:00 6.5 C 6.75 g/m*3 6.5 C 1.6 km/h
1064 24-11-2020 16:35:00 6.5 C 6.75 g/m*3 6.5 C 0 km/h
1065 24-11-2020 16:40:00 6.5 C 6.75 g/m*3 6.5 C 0 km/h
1066 24-11-2020 16:45:00 6.5 C 6.75 g/m*3 6.5 C 0 km/h
1067 24-11-2020 16:50:00 6.5 C 6.75 g/m*3 6.5 C 0 km/h
1068 24-11-2020 16:55:00 6.5 C 6.75 g/m*3 6.5 C 4.8 km/h
1069 24-11-2020 17:00:00 6.5 C 6.75 g/m*3 6.5 C 1.6 km/h
1070 24-11-2020 17:05:00 6.5 C 6.75 g/m*3 6.5 C 0 km/h
1071 24-11-2020 17:10:00 6.5 C 6.75 g/m*3 6.5 C 0 km/h
1072 24-11-2020 17:15:00 6.6 C 6.79 g/m*3 6.6 C 0 km/h
1073 24-11-2020 17:20:00 6.5 C 6.75 g/m*3 6.5 C 0 km/h
1074 24-11-2020 17:25:00 6.6 C 6.79 g/m*3 6.6 C 0 km/h
1075 24-11-2020 17:30:00 6.6 C 6.79 g/m*3 6.6 C 0 km/h
Sensor: Nr:Datum:Temp:Abs-Feuchte:Windchill:Wind:
Aussen-T/F 1076 24-11-2020 17:35:00 6.5 C 6.75 g/m*3 5.33 C 6.4 km/h
1077 24-11-2020 17:40:00 6.5 C 6.75 g/m*3 6.5 C 1.6 km/h
1078 24-11-2020 17:45:00 6.5 C 6.75 g/m*3 6.5 C 1.6 km/h
1079 24-11-2020 17:50:00 6.5 C 6.75 g/m*3 6.5 C 1.6 km/h
1080 24-11-2020 17:55:00 6.4 C 6.71 g/m*3 6.4 C 0 km/h
1081 24-11-2020 18:00:00 6.4 C 6.71 g/m*3 6.4 C 3.2 km/h
1082 24-11-2020 18:05:00 6.4 C 6.71 g/m*3 6.4 C 1.6 km/h
1083 24-11-2020 18:10:00 6.4 C 6.71 g/m*3 6.4 C 1.6 km/h
1084 24-11-2020 18:15:00 6.4 C 6.71 g/m*3 6.4 C 4.8 km/h
1085 24-11-2020 18:20:00 6.4 C 6.71 g/m*3 6.4 C 3.2 km/h
1086 24-11-2020 18:25:00 6.4 C 6.71 g/m*3 6.4 C 1.6 km/h
1087 24-11-2020 18:30:00 6.4 C 6.71 g/m*3 6.4 C 0 km/h
1088 24-11-2020 18:35:00 6.4 C 6.71 g/m*3 6.4 C 0 km/h
1089 24-11-2020 18:40:00 6.4 C 6.71 g/m*3 6.4 C 0 km/h
1090 24-11-2020 18:45:00 6.4 C 6.71 g/m*3 6.4 C 0 km/h
1091 24-11-2020 18:50:00 6.4 C 6.71 g/m*3 6.4 C 0 km/h
1092 24-11-2020 18:55:00 6.4 C 6.71 g/m*3 6.4 C 0 km/h
1093 24-11-2020 19:00:00 6.4 C 6.71 g/m*3 6.4 C 0 km/h
1094 24-11-2020 19:05:00 6.4 C 6.71 g/m*3 6.4 C 3.2 km/h
1095 24-11-2020 19:10:00 6.4 C 6.71 g/m*3 6.4 C 0 km/h
1096 24-11-2020 19:15:00 6.4 C 6.71 g/m*3 6.4 C 0 km/h
1097 24-11-2020 19:20:00 6.4 C 6.71 g/m*3 6.4 C 0 km/h
1098 24-11-2020 19:25:00 6.4 C 6.71 g/m*3 6.4 C 0 km/h
1099 24-11-2020 19:30:00 6.4 C 6.71 g/m*3 6.4 C 1.6 km/h
1100 24-11-2020 19:35:00 6.4 C 6.71 g/m*3 6.4 C 0 km/h
Sensor: Nr:Datum:Temp:Abs-Feuchte:Windchill:Wind:
Aussen-T/F 1101 24-11-2020 19:40:00 6.4 C 6.78 g/m*3 6.4 C 0 km/h
1102 24-11-2020 19:45:00 6.4 C 6.78 g/m*3 6.4 C 0 km/h
1103 24-11-2020 19:50:00 6.4 C 6.78 g/m*3 6.4 C 0 km/h
1104 24-11-2020 19:55:00 6.4 C 6.78 g/m*3 6.4 C 1.6 km/h
1105 24-11-2020 20:00:00 6.4 C 6.78 g/m*3 6.4 C 0 km/h
1106 24-11-2020 20:05:00 6.4 C 6.78 g/m*3 6.4 C 1.6 km/h
1107 24-11-2020 20:10:00 6.4 C 6.78 g/m*3 6.4 C 1.6 km/h
1108 24-11-2020 20:15:00 6.4 C 6.78 g/m*3 6.4 C 0 km/h
1109 24-11-2020 20:20:00 6.4 C 6.78 g/m*3 6.4 C 0 km/h
1110 24-11-2020 20:25:00 6.4 C 6.78 g/m*3 6.4 C 0 km/h
1111 24-11-2020 20:30:00 6.4 C 6.78 g/m*3 6.4 C 0 km/h
1112 24-11-2020 20:35:00 6.4 C 6.78 g/m*3 6.4 C 0 km/h
1113 24-11-2020 20:40:00 6.4 C 6.78 g/m*3 6.4 C 0 km/h
1114 24-11-2020 20:45:00 6.4 C 6.78 g/m*3 6.4 C 0 km/h
1115 24-11-2020 20:50:00 6.4 C 6.78 g/m*3 6.4 C 0 km/h
1116 24-11-2020 20:55:00 6.4 C 6.78 g/m*3 6.4 C 0 km/h
1117 24-11-2020 21:00:00 6.4 C 6.78 g/m*3 6.4 C 0 km/h
1118 24-11-2020 21:05:00 6.4 C 6.78 g/m*3 6.4 C 0 km/h
1119 24-11-2020 21:10:00 6.4 C 6.78 g/m*3 6.4 C 0 km/h
1120 24-11-2020 21:15:00 6.4 C 6.78 g/m*3 6.4 C 0 km/h
1121 24-11-2020 21:20:00 6.4 C 6.78 g/m*3 6.4 C 0 km/h
1122 24-11-2020 21:25:00 6.4 C 6.78 g/m*3 6.4 C 0 km/h
1123 24-11-2020 21:30:00 6.4 C 6.78 g/m*3 6.4 C 0 km/h
1124 24-11-2020 21:35:00 6.4 C 6.78 g/m*3 6.4 C 0 km/h
1125 24-11-2020 21:40:00 6.3 C 6.74 g/m*3 6.3 C 0 km/h
Sensor: Nr:Datum:Temp:Abs-Feuchte:Windchill:Wind:
Aussen-T/F 1126 24-11-2020 21:45:00 6.4 C 6.78 g/m*3 6.4 C 0 km/h
1127 24-11-2020 21:50:00 6.3 C 6.74 g/m*3 6.3 C 0 km/h
1128 24-11-2020 21:55:00 6.3 C 6.74 g/m*3 6.3 C 0 km/h
1129 24-11-2020 22:00:00 6.3 C 6.74 g/m*3 6.3 C 0 km/h
1130 24-11-2020 22:05:00 6.3 C 6.74 g/m*3 6.3 C 0 km/h
1131 24-11-2020 22:10:00 6.3 C 6.74 g/m*3 6.3 C 0 km/h
1132 24-11-2020 22:15:00 6.3 C 6.74 g/m*3 6.3 C 0 km/h
1133 24-11-2020 22:20:00 6.3 C 6.74 g/m*3 6.3 C 0 km/h
1134 24-11-2020 22:25:00 6.3 C 6.74 g/m*3 6.3 C 0 km/h
1135 24-11-2020 22:30:00 6.3 C 6.74 g/m*3 6.3 C 0 km/h
1136 24-11-2020 22:35:00 6.3 C 6.74 g/m*3 6.3 C 0 km/h
1137 24-11-2020 22:40:00 6.3 C 6.74 g/m*3 6.3 C 0 km/h
1138 24-11-2020 22:45:00 6.3 C 6.81 g/m*3 6.3 C 0 km/h
1139 24-11-2020 22:50:00 6.3 C 6.81 g/m*3 6.3 C 0 km/h
1140 24-11-2020 22:55:00 6.3 C 6.81 g/m*3 6.3 C 0 km/h
1141 24-11-2020 23:00:00 6.3 C 6.81 g/m*3 6.3 C 0 km/h
1142 24-11-2020 23:05:00 6.3 C 6.81 g/m*3 6.3 C 0 km/h
1143 24-11-2020 23:10:00 6.3 C 6.81 g/m*3 6.3 C 0 km/h
1144 24-11-2020 23:15:00 6.2 C 6.69 g/m*3 6.2 C 0 km/h
1145 24-11-2020 23:20:00 6.2 C 6.69 g/m*3 6.2 C 0 km/h
1146 24-11-2020 23:25:00 6.2 C 6.69 g/m*3 6.2 C 0 km/h
1147 24-11-2020 23:30:00 6.3 C 6.74 g/m*3 6.3 C 0 km/h
1148 24-11-2020 23:35:00 6.3 C 6.74 g/m*3 6.3 C 1.6 km/h
1149 24-11-2020 23:40:00 6.3 C 6.66 g/m*3 6.3 C 1.6 km/h
1150 24-11-2020 23:45:00 6.3 C 6.66 g/m*3 6.3 C 0 km/h
Sensor: Nr:Datum:Temp:Abs-Feuchte:Windchill:Wind:
Aussen-T/F 1151 24-11-2020 23:50:00 6.3 C 6.66 g/m*3 6.3 C 0 km/h
1152 24-11-2020 23:55:00 6.3 C 6.66 g/m*3 6.3 C 0 km/h
1153 25-11-2020 00:00:00 6.3 C 6.66 g/m*3 6.3 C 0 km/h
1154 25-11-2020 00:05:00 6.3 C 6.66 g/m*3 6.3 C 0 km/h
1155 25-11-2020 00:10:00 6.3 C 6.66 g/m*3 6.3 C 0 km/h
1156 25-11-2020 00:15:00 6.3 C 6.66 g/m*3 6.3 C 0 km/h
1157 25-11-2020 00:20:00 6.3 C 6.66 g/m*3 6.3 C 0 km/h
1158 25-11-2020 00:25:00 6.3 C 6.66 g/m*3 6.3 C 0 km/h
1159 25-11-2020 00:30:00 6.3 C 6.66 g/m*3 6.3 C 0 km/h
1160 25-11-2020 00:35:00 6.3 C 6.66 g/m*3 6.3 C 0 km/h
1161 25-11-2020 00:40:00 6.3 C 6.66 g/m*3 6.3 C 0 km/h
1162 25-11-2020 00:45:00 6.3 C 6.66 g/m*3 6.3 C 0 km/h
1163 25-11-2020 00:50:00 6.2 C 6.62 g/m*3 6.2 C 4.8 km/h
1164 25-11-2020 00:55:00 6.2 C 6.62 g/m*3 6.2 C 0 km/h
1165 25-11-2020 01:00:00 6.2 C 6.62 g/m*3 6.2 C 0 km/h
1166 25-11-2020 01:05:00 6.2 C 6.62 g/m*3 6.2 C 0 km/h
1167 25-11-2020 01:10:00 6.2 C 6.62 g/m*3 6.2 C 0 km/h
1168 25-11-2020 01:15:00 6.2 C 6.62 g/m*3 6.2 C 0 km/h
1169 25-11-2020 01:20:00 6.2 C 6.62 g/m*3 6.2 C 0 km/h
1170 25-11-2020 01:25:00 6.2 C 6.62 g/m*3 6.2 C 0 km/h
1171 25-11-2020 01:30:00 6.2 C 6.62 g/m*3 6.2 C 0 km/h
1172 25-11-2020 01:35:00 6.2 C 6.62 g/m*3 6.2 C 0 km/h
1173 25-11-2020 01:40:00 6.2 C 6.62 g/m*3 6.2 C 0 km/h
1174 25-11-2020 01:45:00 6.1 C 6.58 g/m*3 6.1 C 0 km/h
1175 25-11-2020 01:50:00 6.1 C 6.58 g/m*3 6.1 C 0 km/h
Sensor: Nr:Datum:Temp:Abs-Feuchte:Windchill:Wind:
Aussen-T/F 1176 25-11-2020 01:55:00 6.1 C 6.58 g/m*3 6.1 C 0 km/h
1177 25-11-2020 02:00:00 6.1 C 6.58 g/m*3 6.1 C 0 km/h
1178 25-11-2020 02:05:00 6.1 C 6.58 g/m*3 6.1 C 0 km/h
1179 25-11-2020 02:10:00 6.1 C 6.58 g/m*3 6.1 C 0 km/h
1180 25-11-2020 02:15:00 6.1 C 6.58 g/m*3 6.1 C 0 km/h
1181 25-11-2020 02:20:00 6.1 C 6.58 g/m*3 6.1 C 0 km/h
1182 25-11-2020 02:25:00 6.1 C 6.58 g/m*3 6.1 C 1.6 km/h
1183 25-11-2020 02:30:00 6 C 6.53 g/m*3 6 C 1.6 km/h
1184 25-11-2020 02:35:00 6.1 C 6.58 g/m*3 6.1 C 0 km/h
1185 25-11-2020 02:40:00 6.1 C 6.58 g/m*3 6.1 C 0 km/h
1186 25-11-2020 02:45:00 6 C 6.53 g/m*3 6 C 0 km/h
1187 25-11-2020 02:50:00 6 C 6.53 g/m*3 6 C 0 km/h
1188 25-11-2020 02:55:00 5.9 C 6.49 g/m*3 5.9 C 0 km/h
1189 25-11-2020 03:00:00 5.9 C 6.49 g/m*3 5.9 C 4.8 km/h
1190 25-11-2020 03:05:00 5.9 C 6.49 g/m*3 5.9 C 0 km/h
1191 25-11-2020 03:10:00 5.9 C 6.49 g/m*3 5.9 C 0 km/h
1192 25-11-2020 03:15:00 5.9 C 6.56 g/m*3 5.9 C 0 km/h
1193 25-11-2020 03:20:00 5.9 C 6.49 g/m*3 5.9 C 0 km/h
1194 25-11-2020 03:25:00 5.9 C 6.56 g/m*3 5.9 C 0 km/h
1195 25-11-2020 03:30:00 5.8 C 6.52 g/m*3 5.8 C 0 km/h
1196 25-11-2020 03:35:00 5.8 C 6.52 g/m*3 5.8 C 0 km/h
1197 25-11-2020 03:40:00 5.8 C 6.52 g/m*3 5.8 C 0 km/h
1198 25-11-2020 03:45:00 5.8 C 6.52 g/m*3 5.8 C 1.6 km/h
1199 25-11-2020 03:50:00 5.8 C 6.52 g/m*3 5.8 C 0 km/h
1200 25-11-2020 03:55:00 5.8 C 6.52 g/m*3 5.8 C 0 km/h
Sensor: Nr:Datum:Temp:Abs-Feuchte:Windchill:Wind:
Aussen-T/F 1201 25-11-2020 04:00:00 5.7 C 6.48 g/m*3 5.7 C 0 km/h
1202 25-11-2020 04:05:00 5.7 C 6.48 g/m*3 5.7 C 0 km/h
1203 25-11-2020 04:10:00 5.7 C 6.48 g/m*3 5.7 C 0 km/h
1204 25-11-2020 04:15:00 5.7 C 6.48 g/m*3 5.7 C 0 km/h
1205 25-11-2020 04:20:00 5.6 C 6.43 g/m*3 5.6 C 0 km/h
1206 25-11-2020 04:25:00 5.6 C 6.43 g/m*3 5.6 C 0 km/h
1207 25-11-2020 04:30:00 5.6 C 6.5 g/m*3 5.6 C 3.2 km/h
1208 25-11-2020 04:35:00 5.5 C 6.39 g/m*3 5.5 C 0 km/h
1209 25-11-2020 04:40:00 5.4 C 6.35 g/m*3 5.4 C 0 km/h
1210 25-11-2020 04:45:00 5.4 C 6.35 g/m*3 5.4 C 0 km/h
1211 25-11-2020 04:50:00 5.3 C 6.31 g/m*3 5.3 C 0 km/h
1212 25-11-2020 04:55:00 5.2 C 6.27 g/m*3 5.2 C 1.6 km/h
1213 25-11-2020 05:00:00 5.1 C 6.22 g/m*3 5.1 C 0 km/h
1214 25-11-2020 05:05:00 4.9 C 6.14 g/m*3 4.9 C 0 km/h
1215 25-11-2020 05:10:00 4.8 C 6.1 g/m*3 4.8 C 1.6 km/h
1216 25-11-2020 05:15:00 4.7 C 6.06 g/m*3 4.7 C 0 km/h
1217 25-11-2020 05:20:00 4.6 C 6.02 g/m*3 4.6 C 0 km/h
1218 25-11-2020 05:25:00 4.4 C 6.01 g/m*3 4.4 C 0 km/h
1219 25-11-2020 05:30:00 4.3 C 5.97 g/m*3 4.3 C 0 km/h
1220 25-11-2020 05:35:00 4.2 C 5.93 g/m*3 4.2 C 0 km/h
1221 25-11-2020 05:40:00 4.1 C 5.89 g/m*3 4.1 C 1.6 km/h
1222 25-11-2020 05:45:00 4 C 5.85 g/m*3 4 C 3.2 km/h
1223 25-11-2020 05:50:00 3.9 C 5.81 g/m*3 3.9 C 1.6 km/h
1224 25-11-2020 05:55:00 3.8 C 5.83 g/m*3 3.8 C 0 km/h
1225 25-11-2020 06:00:00 3.8 C 5.83 g/m*3 3.8 C 0 km/h
Sensor: Nr:Datum:Temp:Abs-Feuchte:Windchill:Wind:
Aussen-T/F 1226 25-11-2020 06:05:00 3.7 C 5.8 g/m*3 3.7 C 1.6 km/h
1227 25-11-2020 06:10:00 3.7 C 5.8 g/m*3 3.7 C 3.2 km/h
1228 25-11-2020 06:15:00 3.6 C 5.76 g/m*3 3.6 C 1.6 km/h
1229 25-11-2020 06:20:00 3.6 C 5.76 g/m*3 3.6 C 3.2 km/h
1230 25-11-2020 06:25:00 3.4 C 5.68 g/m*3 3.4 C 3.2 km/h
1231 25-11-2020 06:30:00 3.3 C 5.64 g/m*3 3.3 C 1.6 km/h
1232 25-11-2020 06:35:00 3.3 C 5.7 g/m*3 3.3 C 0 km/h
1233 25-11-2020 06:40:00 3.3 C 5.7 g/m*3 3.3 C 3.2 km/h
1234 25-11-2020 06:45:00 3.2 C 5.66 g/m*3 3.2 C 0 km/h
1235 25-11-2020 06:50:00 3.2 C 5.66 g/m*3 3.2 C 0 km/h
1236 25-11-2020 06:55:00 3.1 C 5.63 g/m*3 3.1 C 0 km/h
1237 25-11-2020 07:00:00 3.1 C 5.63 g/m*3 3.1 C 3.2 km/h
1238 25-11-2020 07:05:00 3 C 5.59 g/m*3 3 C 1.6 km/h
1239 25-11-2020 07:10:00 2.9 C 5.55 g/m*3 2.9 C 1.6 km/h
1240 25-11-2020 07:15:00 2.8 C 5.51 g/m*3 2.8 C 1.6 km/h
1241 25-11-2020 07:20:00 2.8 C 5.51 g/m*3 2.8 C 0 km/h
1242 25-11-2020 07:25:00 2.7 C 5.48 g/m*3 2.7 C 0 km/h
1243 25-11-2020 07:30:00 2.7 C 5.48 g/m*3 2.7 C 0 km/h
1244 25-11-2020 07:35:00 2.7 C 5.48 g/m*3 2.7 C 0 km/h
1245 25-11-2020 07:40:00 2.7 C 5.54 g/m*3 2.7 C 0 km/h
1246 25-11-2020 07:45:00 2.7 C 5.54 g/m*3 2.7 C 0 km/h
1247 25-11-2020 07:50:00 2.7 C 5.54 g/m*3 2.7 C 0 km/h
1248 25-11-2020 07:55:00 2.6 C 5.5 g/m*3 2.6 C 0 km/h
1249 25-11-2020 08:00:00 2.6 C 5.5 g/m*3 2.6 C 0 km/h
1250 25-11-2020 08:05:00 2.6 C 5.5 g/m*3 2.6 C 0 km/h
Sensor: Nr:Datum:Temp:Abs-Feuchte:Windchill:Wind:
Aussen-T/F 1251 25-11-2020 08:10:00 2.6 C 5.5 g/m*3 2.6 C 0 km/h
1252 25-11-2020 08:15:00 2.6 C 5.5 g/m*3 2.6 C 0 km/h
1253 25-11-2020 08:20:00 2.5 C 5.46 g/m*3 2.5 C 0 km/h
1254 25-11-2020 08:25:00 2.5 C 5.46 g/m*3 2.5 C 0 km/h
1255 25-11-2020 08:30:00 2.4 C 5.42 g/m*3 2.4 C 0 km/h
1256 25-11-2020 08:35:00 2.5 C 5.46 g/m*3 2.5 C 0 km/h
1257 25-11-2020 08:40:00 2.5 C 5.46 g/m*3 2.5 C 0 km/h
1258 25-11-2020 08:45:00 2.5 C 5.46 g/m*3 2.5 C 0 km/h
1259 25-11-2020 08:50:00 2.6 C 5.5 g/m*3 2.6 C 0 km/h
1260 25-11-2020 08:55:00 2.6 C 5.5 g/m*3 2.6 C 0 km/h
1261 25-11-2020 09:00:00 2.6 C 5.5 g/m*3 2.6 C 0 km/h
1262 25-11-2020 09:05:00 2.7 C 5.54 g/m*3 2.7 C 0 km/h
1263 25-11-2020 09:10:00 2.7 C 5.54 g/m*3 2.7 C 0 km/h
1264 25-11-2020 09:15:00 2.8 C 5.57 g/m*3 2.8 C 0 km/h
1265 25-11-2020 09:20:00 2.8 C 5.63 g/m*3 2.8 C 0 km/h
1266 25-11-2020 09:25:00 2.9 C 5.67 g/m*3 2.9 C 0 km/h
1267 25-11-2020 09:30:00 2.9 C 5.67 g/m*3 2.9 C 0 km/h
1268 25-11-2020 09:35:00 3 C 5.71 g/m*3 3 C 0 km/h
1269 25-11-2020 09:40:00 3.1 C 5.75 g/m*3 3.1 C 0 km/h
1270 25-11-2020 09:45:00 3.2 C 5.79 g/m*3 3.2 C 0 km/h
1271 25-11-2020 09:50:00 3.2 C 5.79 g/m*3 3.2 C 0 km/h
1272 25-11-2020 09:55:00 3.3 C 5.82 g/m*3 3.3 C 0 km/h
1273 25-11-2020 10:00:00 3.3 C 5.82 g/m*3 3.3 C 0 km/h
1274 25-11-2020 10:05:00 3.4 C 5.86 g/m*3 3.4 C 0 km/h
1275 25-11-2020 10:10:00 3.5 C 5.9 g/m*3 3.5 C 0 km/h
Sensor: Nr:Datum:Temp:Abs-Feuchte:Windchill:Wind:
Aussen-T/F 1276 25-11-2020 10:15:00 3.6 C 5.94 g/m*3 3.6 C 0 km/h
1277 25-11-2020 10:20:00 3.7 C 5.98 g/m*3 3.7 C 0 km/h
1278 25-11-2020 10:25:00 3.8 C 6.02 g/m*3 3.8 C 0 km/h
1279 25-11-2020 10:30:00 4 C 6.1 g/m*3 4 C 0 km/h
1280 25-11-2020 10:35:00 4.2 C 6.25 g/m*3 4.2 C 0 km/h
1281 25-11-2020 10:40:00 4.4 C 6.27 g/m*3 4.4 C 0 km/h
1282 25-11-2020 10:45:00 4.6 C 6.42 g/m*3 4.6 C 0 km/h
1283 25-11-2020 10:50:00 4.8 C 6.5 g/m*3 4.8 C 0 km/h
1284 25-11-2020 10:55:00 5 C 6.59 g/m*3 5 C 0 km/h
1285 25-11-2020 11:00:00 5.2 C 6.68 g/m*3 5.2 C 0 km/h
1286 25-11-2020 11:05:00 5.3 C 6.72 g/m*3 5.3 C 0 km/h
1287 25-11-2020 11:10:00 5.4 C 6.77 g/m*3 5.4 C 0 km/h
1288 25-11-2020 11:15:00 5.6 C 6.86 g/m*3 5.6 C 0 km/h
1289 25-11-2020 11:20:00 5.6 C 6.86 g/m*3 5.6 C 0 km/h
1290 25-11-2020 11:25:00 5.7 C 6.83 g/m*3 5.7 C 0 km/h
1291 25-11-2020 11:30:00 5.7 C 6.83 g/m*3 5.7 C 0 km/h
1292 25-11-2020 11:35:00 5.7 C 6.83 g/m*3 5.7 C 0 km/h
1293 25-11-2020 11:40:00 5.7 C 6.83 g/m*3 5.7 C 0 km/h
1294 25-11-2020 11:45:00 5.7 C 6.83 g/m*3 5.7 C 0 km/h
1295 25-11-2020 11:50:00 5.7 C 6.83 g/m*3 5.7 C 4.8 km/h
1296 25-11-2020 11:55:00 5.7 C 6.76 g/m*3 5.7 C 0 km/h
1297 25-11-2020 12:00:00 5.7 C 6.76 g/m*3 5.7 C 0 km/h
1298 25-11-2020 12:05:00 5.7 C 6.76 g/m*3 5.7 C 0 km/h
1299 25-11-2020 12:10:00 5.7 C 6.76 g/m*3 5.7 C 0 km/h
1300 25-11-2020 12:15:00 5.7 C 6.76 g/m*3 5.7 C 1.6 km/h
Sensor: Nr:Datum:Temp:Abs-Feuchte:Windchill:Wind:
Aussen-T/F 1301 25-11-2020 12:20:00 5.7 C 6.76 g/m*3 5.7 C 0 km/h
1302 25-11-2020 12:25:00 5.7 C 6.76 g/m*3 5.7 C 0 km/h
1303 25-11-2020 12:30:00 5.7 C 6.76 g/m*3 5.7 C 0 km/h
1304 25-11-2020 12:35:00 5.7 C 6.76 g/m*3 5.7 C 0 km/h
1305 25-11-2020 12:40:00 5.8 C 6.81 g/m*3 5.8 C 0 km/h
1306 25-11-2020 12:45:00 5.8 C 6.81 g/m*3 5.8 C 1.6 km/h
1307 25-11-2020 12:50:00 5.9 C 6.85 g/m*3 5.9 C 0 km/h
1308 25-11-2020 12:55:00 5.9 C 6.85 g/m*3 5.9 C 0 km/h
1309 25-11-2020 13:00:00 6 C 6.9 g/m*3 6 C 0 km/h
1310 25-11-2020 13:05:00 6 C 6.9 g/m*3 6 C 0 km/h
1311 25-11-2020 13:10:00 6.1 C 6.94 g/m*3 6.1 C 0 km/h
1312 25-11-2020 13:15:00 6.1 C 6.94 g/m*3 6.1 C 1.6 km/h
1313 25-11-2020 13:20:00 6.1 C 6.94 g/m*3 6.1 C 0 km/h
1314 25-11-2020 13:25:00 6.2 C 6.99 g/m*3 6.2 C 1.6 km/h
1315 25-11-2020 13:30:00 6.2 C 6.99 g/m*3 6.2 C 3.2 km/h
1316 25-11-2020 13:35:00 6.3 C 7.03 g/m*3 6.3 C 0 km/h
1317 25-11-2020 13:40:00 6.3 C 7.03 g/m*3 6.3 C 3.2 km/h
1318 25-11-2020 13:45:00 6.3 C 7.03 g/m*3 6.3 C 1.6 km/h
1319 25-11-2020 13:50:00 6.4 C 7 g/m*3 6.4 C 1.6 km/h
1320 25-11-2020 13:55:00 6.5 C 7.05 g/m*3 6.5 C 0 km/h
1321 25-11-2020 14:00:00 6.5 C 7.05 g/m*3 6.5 C 0 km/h
1322 25-11-2020 14:05:00 6.6 C 7.1 g/m*3 6.6 C 0 km/h
1323 25-11-2020 14:10:00 6.7 C 7.14 g/m*3 6.7 C 1.6 km/h
1324 25-11-2020 14:15:00 6.7 C 7.14 g/m*3 6.7 C 0 km/h
1325 25-11-2020 14:20:00 6.7 C 7.14 g/m*3 6.7 C 0 km/h
Sensor: Nr:Datum:Temp:Abs-Feuchte:Windchill:Wind:
Aussen-T/F 1326 25-11-2020 14:25:00 6.7 C 7.14 g/m*3 6.7 C 0 km/h
1327 25-11-2020 14:30:00 6.7 C 7.14 g/m*3 6.7 C 0 km/h
1328 25-11-2020 14:35:00 6.6 C 7.02 g/m*3 6.6 C 0 km/h
1329 25-11-2020 14:40:00 6.6 C 7.02 g/m*3 6.6 C 0 km/h
1330 25-11-2020 14:45:00 6.6 C 7.02 g/m*3 6.6 C 0 km/h
1331 25-11-2020 14:50:00 6.6 C 7.02 g/m*3 6.6 C 0 km/h
1332 25-11-2020 14:55:00 6.5 C 6.97 g/m*3 6.5 C 0 km/h
1333 25-11-2020 15:00:00 6.5 C 6.97 g/m*3 6.5 C 0 km/h
1334 25-11-2020 15:05:00 6.5 C 6.97 g/m*3 6.5 C 1.6 km/h
1335 25-11-2020 15:10:00 6.5 C 6.97 g/m*3 6.5 C 0 km/h
1336 25-11-2020 15:15:00 6.4 C 6.93 g/m*3 6.4 C 0 km/h
1337 25-11-2020 15:20:00 6.4 C 6.93 g/m*3 6.4 C 1.6 km/h
1338 25-11-2020 15:25:00 6.4 C 6.93 g/m*3 6.4 C 0 km/h
1339 25-11-2020 15:30:00 6.4 C 6.93 g/m*3 6.4 C 0 km/h
1340 25-11-2020 15:35:00 6.4 C 6.93 g/m*3 6.4 C 1.6 km/h
1341 25-11-2020 15:40:00 6.3 C 6.88 g/m*3 6.3 C 4.8 km/h
1342 25-11-2020 15:45:00 6.3 C 6.88 g/m*3 6.3 C 3.2 km/h
1343 25-11-2020 15:50:00 6.3 C 6.88 g/m*3 6.3 C 1.6 km/h
1344 25-11-2020 15:55:00 6.2 C 6.77 g/m*3 6.2 C 1.6 km/h
1345 25-11-2020 16:00:00 6.2 C 6.77 g/m*3 6.2 C 4.8 km/h
1346 25-11-2020 16:05:00 6.2 C 6.77 g/m*3 6.2 C 4.8 km/h
1347 25-11-2020 16:10:00 6.1 C 6.72 g/m*3 6.1 C 4.8 km/h
1348 25-11-2020 16:15:00 6 C 6.68 g/m*3 4.75 C 6.4 km/h
1349 25-11-2020 16:20:00 5.9 C 6.63 g/m*3 4.63 C 6.4 km/h
1350 25-11-2020 16:25:00 5.9 C 6.63 g/m*3 3.8 C 9.7 km/h
Sensor: Nr:Datum:Temp:Abs-Feuchte:Windchill:Wind:
Aussen-T/F 1351 25-11-2020 16:30:00 5.9 C 6.63 g/m*3 3.8 C 9.7 km/h
1352 25-11-2020 16:35:00 6 C 6.68 g/m*3 3.92 C 9.7 km/h
1353 25-11-2020 16:40:00 6.1 C 6.72 g/m*3 4.4 C 8.1 km/h
1354 25-11-2020 16:45:00 5.9 C 6.56 g/m*3 5.9 C 4.8 km/h
1355 25-11-2020 16:50:00 5.8 C 6.52 g/m*3 5.8 C 0 km/h
1356 25-11-2020 16:55:00 5.7 C 6.48 g/m*3 5.7 C 1.6 km/h
1357 25-11-2020 17:00:00 5.6 C 6.43 g/m*3 5.6 C 1.6 km/h
1358 25-11-2020 17:05:00 5.4 C 6.35 g/m*3 5.4 C 1.6 km/h
1359 25-11-2020 17:10:00 5.2 C 6.27 g/m*3 5.2 C 1.6 km/h
1360 25-11-2020 17:15:00 5.1 C 6.22 g/m*3 5.1 C 0 km/h
1361 25-11-2020 17:20:00 5.1 C 6.29 g/m*3 5.1 C 3.2 km/h
1362 25-11-2020 17:25:00 5 C 6.25 g/m*3 5 C 1.6 km/h
1363 25-11-2020 17:30:00 4.9 C 6.21 g/m*3 3.48 C 6.4 km/h
1364 25-11-2020 17:35:00 4.9 C 6.28 g/m*3 4.9 C 1.6 km/h
1365 25-11-2020 17:40:00 4.9 C 6.28 g/m*3 4.9 C 0 km/h
1366 25-11-2020 17:45:00 4.8 C 6.17 g/m*3 4.8 C 0 km/h
1367 25-11-2020 17:50:00 4.7 C 6.13 g/m*3 4.7 C 0 km/h
1368 25-11-2020 17:55:00 4.6 C 6.09 g/m*3 4.6 C 1.6 km/h
1369 25-11-2020 18:00:00 4.5 C 6.05 g/m*3 4.5 C 0 km/h
1370 25-11-2020 18:05:00 4.4 C 6.07 g/m*3 4.4 C 0 km/h
1371 25-11-2020 18:10:00 4.4 C 6.07 g/m*3 4.4 C 0 km/h
1372 25-11-2020 18:15:00 4.3 C 6.03 g/m*3 4.3 C 0 km/h
1373 25-11-2020 18:20:00 4.2 C 5.99 g/m*3 4.2 C 0 km/h
1374 25-11-2020 18:25:00 4.1 C 5.95 g/m*3 4.1 C 0 km/h
1375 25-11-2020 18:30:00 4.1 C 5.95 g/m*3 4.1 C 0 km/h
Sensor: Nr:Datum:Temp:Abs-Feuchte:Windchill:Wind:
Aussen-T/F 1376 25-11-2020 18:35:00 3.9 C 5.87 g/m*3 3.9 C 0 km/h
1377 25-11-2020 18:40:00 3.9 C 5.87 g/m*3 3.9 C 0 km/h
1378 25-11-2020 18:45:00 3.8 C 5.83 g/m*3 3.8 C 0 km/h
1379 25-11-2020 18:50:00 3.8 C 5.9 g/m*3 3.8 C 0 km/h
1380 25-11-2020 18:55:00 3.8 C 5.9 g/m*3 3.8 C 0 km/h
1381 25-11-2020 19:00:00 3.7 C 5.86 g/m*3 3.7 C 0 km/h
1382 25-11-2020 19:05:00 3.7 C 5.86 g/m*3 3.7 C 0 km/h
1383 25-11-2020 19:10:00 3.6 C 5.82 g/m*3 3.6 C 1.6 km/h
1384 25-11-2020 19:15:00 3.6 C 5.82 g/m*3 3.6 C 0 km/h
1385 25-11-2020 19:20:00 3.4 C 5.74 g/m*3 3.4 C 0 km/h
1386 25-11-2020 19:25:00 3.4 C 5.74 g/m*3 3.4 C 0 km/h
1387 25-11-2020 19:30:00 3.4 C 5.74 g/m*3 3.4 C 0 km/h
1388 25-11-2020 19:35:00 3.4 C 5.74 g/m*3 3.4 C 0 km/h
1389 25-11-2020 19:40:00 3.4 C 5.74 g/m*3 3.4 C 0 km/h
1390 25-11-2020 19:45:00 3.4 C 5.74 g/m*3 3.4 C 0 km/h
1391 25-11-2020 19:50:00 3.4 C 5.74 g/m*3 3.4 C 0 km/h
1392 25-11-2020 19:55:00 3.4 C 5.8 g/m*3 3.4 C 0 km/h
1393 25-11-2020 20:00:00 3.3 C 5.76 g/m*3 3.3 C 0 km/h
1394 25-11-2020 20:05:00 3.3 C 5.76 g/m*3 3.3 C 1.6 km/h
1395 25-11-2020 20:10:00 3.3 C 5.76 g/m*3 3.3 C 0 km/h
1396 25-11-2020 20:15:00 3.3 C 5.76 g/m*3 3.3 C 0 km/h
1397 25-11-2020 20:20:00 3.3 C 5.76 g/m*3 3.3 C 0 km/h
1398 25-11-2020 20:25:00 3.2 C 5.72 g/m*3 3.2 C 0 km/h
1399 25-11-2020 20:30:00 3.2 C 5.72 g/m*3 3.2 C 0 km/h
1400 25-11-2020 20:35:00 3.1 C 5.69 g/m*3 3.1 C 0 km/h
Sensor: Nr:Datum:Temp:Abs-Feuchte:Windchill:Wind:
Aussen-T/F 1401 25-11-2020 20:40:00 3 C 5.65 g/m*3 3 C 0 km/h
1402 25-11-2020 20:45:00 2.9 C 5.61 g/m*3 2.9 C 0 km/h
1403 25-11-2020 20:50:00 2.9 C 5.61 g/m*3 2.9 C 0 km/h
1404 25-11-2020 20:55:00 2.8 C 5.57 g/m*3 2.8 C 4.8 km/h
1405 25-11-2020 21:00:00 2.8 C 5.57 g/m*3 2.8 C 3.2 km/h
1406 25-11-2020 21:05:00 2.8 C 5.57 g/m*3 2.8 C 1.6 km/h
1407 25-11-2020 21:10:00 2.8 C 5.57 g/m*3 2.8 C 1.6 km/h
1408 25-11-2020 21:15:00 2.7 C 5.54 g/m*3 2.7 C 0 km/h
1409 25-11-2020 21:20:00 2.6 C 5.5 g/m*3 2.6 C 0 km/h
1410 25-11-2020 21:25:00 2.5 C 5.46 g/m*3 2.5 C 1.6 km/h
1411 25-11-2020 21:30:00 2.4 C 5.42 g/m*3 2.4 C 0 km/h
1412 25-11-2020 21:35:00 2.3 C 5.39 g/m*3 2.3 C 0 km/h
1413 25-11-2020 21:40:00 2.2 C 5.35 g/m*3 2.2 C 0 km/h
1414 25-11-2020 21:45:00 2.2 C 5.35 g/m*3 2.2 C 0 km/h
1415 25-11-2020 21:50:00 2.2 C 5.35 g/m*3 2.2 C 0 km/h
1416 25-11-2020 21:55:00 2.2 C 5.35 g/m*3 2.2 C 0 km/h
1417 25-11-2020 22:00:00 2.2 C 5.35 g/m*3 2.2 C 0 km/h
1418 25-11-2020 22:05:00 2.2 C 5.35 g/m*3 2.2 C 0 km/h
1419 25-11-2020 22:10:00 2.2 C 5.35 g/m*3 2.2 C 0 km/h
1420 25-11-2020 22:15:00 2.2 C 5.35 g/m*3 2.2 C 0 km/h
1421 25-11-2020 22:20:00 2.1 C 5.31 g/m*3 2.1 C 0 km/h
1422 25-11-2020 22:25:00 2.1 C 5.31 g/m*3 2.1 C 0 km/h
1423 25-11-2020 22:30:00 2.1 C 5.31 g/m*3 2.1 C 0 km/h
1424 25-11-2020 22:35:00 2.1 C 5.37 g/m*3 2.1 C 0 km/h
1425 25-11-2020 22:40:00 2.1 C 5.31 g/m*3 2.1 C 0 km/h
Sensor: Nr:Datum:Temp:Abs-Feuchte:Windchill:Wind:
Aussen-T/F 1426 25-11-2020 22:45:00 2.1 C 5.31 g/m*3 2.1 C 0 km/h
1427 25-11-2020 22:50:00 2.1 C 5.31 g/m*3 2.1 C 0 km/h
1428 25-11-2020 22:55:00 2.1 C 5.31 g/m*3 2.1 C 0 km/h
1429 25-11-2020 23:00:00 2.1 C 5.37 g/m*3 2.1 C 0 km/h
1430 25-11-2020 23:05:00 2.1 C 5.37 g/m*3 2.1 C 0 km/h
1431 25-11-2020 23:10:00 2.1 C 5.37 g/m*3 2.1 C 3.2 km/h
1432 25-11-2020 23:15:00 2 C 5.33 g/m*3 2 C 1.6 km/h
1433 25-11-2020 23:20:00 1.9 C 5.3 g/m*3 1.9 C 0 km/h
1434 25-11-2020 23:25:00 1.9 C 5.3 g/m*3 1.9 C 0 km/h
1435 25-11-2020 23:30:00 1.8 C 5.21 g/m*3 1.8 C 0 km/h
1436 25-11-2020 23:35:00 1.7 C 5.17 g/m*3 1.7 C 0 km/h
1437 25-11-2020 23:40:00 1.7 C 5.17 g/m*3 1.7 C 0 km/h
1438 25-11-2020 23:45:00 1.7 C 5.23 g/m*3 1.7 C 0 km/h
1439 25-11-2020 23:50:00 1.7 C 5.23 g/m*3 1.7 C 0 km/h
1440 25-11-2020 23:55:00 1.7 C 5.23 g/m*3 1.7 C 0 km/h

Legende:
   Min
   Max


Maximal/Minimal-Werte vom 14.04.2020 - 16.05.2020

Sensor Min Max Avg
Temp
(Aussen-T/F)
-0.1 °C
15-04-2020  06:55:00
26.2 °C
17-04-2020  18:05:00
11.98 °C

Die Daten stammen von einer Davis Vantage Pro 2 Wetter-Station und werden unter Linux mit der Software wview2wettercgi und aufbereitet. Alle Angaben erfolgen ohne Gewähr für ihre Vollständigkeit oder Richtigkeit.
Kontakt: Rainer Krienke krienke@uni-koblenz.de . Meine Webseiten an der Uni Koblenz oder privat.
Version: $Revision: 0.78 $